FW1385 Weather Reports


Display with metric or nautical units.
time (UTC)temp
F
wind
direction
speed
MPH
gust
MPH
rain 1hr
in
rain 24hr
in
rain mn
in
humidity
%
barometer
mb
20260507095603 51 170 0.0 1.0 0.00 0.37 0.01 95 1011.9
20260507095503 51 170 0.0 1.0 0.00 0.37 0.01 95 1011.9
20260507095403 51 0 0.0 0.0 0.00 0.37 0.01 95 1011.9
20260507095306 51 0 0.0 0.0 0.00 0.37 0.01 95 1011.9
20260507095204 51 170 0.0 1.0 0.00 0.37 0.01 95 1011.9
20260507095103 51 170 0.0 1.0 0.00 0.37 0.01 95 1012.0
20260507095004 51 170 0.0 1.0 0.00 0.37 0.01 95 1012.0
20260507094903 51 170 0.0 1.0 0.00 0.38 0.01 95 1012.0
20260507094703 51 170 0.0 1.0 0.00 0.38 0.01 95 1012.2
20260507094603 51 170 0.0 1.0 0.00 0.38 0.01 95 1012.2
20260507094404 51 170 0.0 1.0 0.00 0.38 0.01 95 1012.2
20260507094303 51 170 0.0 1.0 0.00 0.38 0.01 95 1012.3
20260507094203 51 170 0.0 1.0 0.00 0.39 0.01 95 1012.3
20260507094104 51 170 0.0 1.0 0.00 0.39 0.01 95 1012.2
20260507094005 51 170 0.0 1.0 0.00 0.41 0.01 95 1012.2
20260507093803 51 170 0.0 1.0 0.00 0.44 0.01 95 1012.0
20260507093704 51 170 0.0 1.0 0.00 0.45 0.01 95 1012.0
20260507093618 52 170 0.0 1.0 0.00 0.46 0.01 95 1012.1
20260507093604 51 170 0.0 1.0 0.00 0.46 0.01 95 1012.1
20260507093517 51 170 0.0 1.0 0.00 0.47 0.01 95 1012.1
20260507093504 52 170 0.0 1.0 0.00 0.47 0.01 95 1012.1
20260507093203 51 170 0.0 1.0 0.00 0.50 0.01 95 1012.2
20260507093103 52 170 0.0 1.0 0.00 0.51 0.01 95 1012.2
20260507093004 52 170 0.0 1.0 0.00 0.51 0.01 95 1012.2
20260507092904 52 170 0.0 1.0 0.00 0.52 0.01 95 1012.2
20260507092804 52 170 0.0 1.0 0.00 0.52 0.01 95 1012.2
20260507092703 52 170 0.0 1.0 0.00 0.52 0.01 95 1012.2
20260507092603 52 170 0.0 1.0 0.00 0.53 0.01 95 1012.3
20260507092503 52 170 0.0 1.0 0.00 0.53 0.01 95 1012.3
20260507092403 52 170 0.0 1.0 0.00 0.53 0.01 95 1012.3
20260507092307 52 170 0.0 1.0 0.00 0.53 0.01 95 1012.2
20260507092204 52 170 0.0 1.0 0.00 0.53 0.01 95 1012.2
20260507092103 52 170 0.0 1.0 0.00 0.53 0.01 95 1012.2
20260507092003 52 170 0.0 1.0 0.00 0.54 0.01 95 1012.2
20260507091804 52 170 0.0 1.0 0.00 0.54 0.01 95 1012.2
20260507091703 52 170 0.0 1.0 0.00 0.54 0.01 95 1012.2
20260507091603 52 170 0.0 2.0 0.00 0.55 0.01 95 1012.2
20260507091503 52 170 0.0 2.0 0.00 0.55 0.01 95 1012.2
20260507091404 52 170 0.0 2.0 0.00 0.55 0.01 95 1012.2
20260507091303 52 170 0.0 2.0 0.00 0.55 0.01 95 1012.2
20260507091204 52 170 0.0 2.0 0.00 0.55 0.01 95 1012.2
20260507091103 52 170 0.0 2.0 0.00 0.55 0.01 95 1012.0
20260507091004 52 170 0.0 2.0 0.00 0.56 0.01 95 1012.0
20260507090903 52 170 0.0 2.0 0.00 0.56 0.01 95 1012.0
20260507090803 52 170 0.0 2.0 0.00 0.56 0.01 95 1011.9
20260507090704 52 170 0.0 2.0 0.00 0.56 0.01 95 1011.9
20260507090603 52 170 0.0 2.0 0.00 0.56 0.01 95 1011.9
20260507090504 52 170 0.0 2.0 0.00 0.56 0.01 95 1011.9
20260507090403 52 170 0.0 2.0 0.00 0.56 0.01 95 1011.9
20260507090304 52 170 0.0 2.0 0.00 0.56 0.01 95 1012.1
20260507090203 52 170 0.0 2.0 0.00 0.56 0.01 95 1012.1
20260507090103 52 170 0.0 2.0 0.00 0.56 0.01 95 1012.1
20260507085903 52 170 0.0 2.0 0.00 0.57 0.01 95 1012.0
20260507085803 52 170 0.0 2.0 0.00 0.57 0.01 95 1012.0
20260507085703 52 170 1.0 2.0 0.00 0.57 0.01 95 1012.0
20260507085604 52 170 1.0 3.0 0.00 0.57 0.01 95 1012.0
20260507085503 52 170 0.0 3.0 0.00 0.57 0.01 95 1012.1
20260507085404 52 170 0.0 3.0 0.00 0.57 0.01 95 1012.1
20260507085306 52 170 0.0 3.0 0.00 0.57 0.01 95 1012.0
20260507085203 52 170 0.0 3.0 0.00 0.57 0.01 95 1012.0
20260507085104 52 170 0.0 3.0 0.00 0.57 0.01 95 1012.0
20260507084903 52 170 0.0 3.0 0.00 0.57 0.01 95 1011.9
20260507084803 52 170 0.0 3.0 0.00 0.57 0.01 95 1011.9
20260507084704 52 170 0.0 3.0 0.00 0.57 0.01 95 1011.8
20260507084604 52 0 0.0 0.0 0.00 0.57 0.01 95 1011.8
20260507084403 52 0 0.0 0.0 0.00 0.57 0.01 95 1011.8
20260507084303 52 0 0.0 0.0 0.00 0.57 0.01 95 1011.8
20260507084203 52 0 0.0 0.0 0.00 0.57 0.01 95 1011.8
20260507084103 52 0 0.0 0.0 0.00 0.57 0.01 95 1011.8
20260507084004 52 0 0.0 0.0 0.00 0.57 0.01 95 1011.8
20260507083703 52 0 0.0 0.0 0.00 0.57 0.01 95 1012.1
20260507083604 52 0 0.0 0.0 0.00 0.57 0.01 95 1012.1
20260507083403 52 0 0.0 0.0 0.00 0.57 0.01 95 1012.0
20260507083303 52 0 0.0 0.0 0.00 0.57 0.01 95 1012.0
20260507083203 52 0 0.0 0.0 0.00 0.57 0.01 95 1011.9
20260507083103 52 0 0.0 0.0 0.00 0.57 0.01 95 1011.9
20260507083005 52 0 0.0 0.0 0.00 0.57 0.01 95 1011.9
20260507082903 52 0 0.0 0.0 0.00 0.57 0.01 95 1011.9
20260507082803 52 0 0.0 0.0 0.00 0.57 0.01 95 1011.9
20260507082703 52 0 0.0 0.0 0.00 0.57 0.01 95 1011.9
20260507082604 52 0 0.0 0.0 0.00 0.57 0.01 95 1012.0
20260507082503 52 0 0.0 0.0 0.00 0.57 0.01 95 1012.0
20260507082404 52 0 0.0 0.0 0.00 0.57 0.01 95 1012.0
20260507082306 52 0 0.0 0.0 0.00 0.57 0.01 95 1012.0
20260507082203 52 0 0.0 0.0 0.00 0.57 0.01 95 1011.9
20260507082103 52 0 0.0 0.0 0.00 0.57 0.01 95 1012.0
20260507081904 52 0 0.0 0.0 0.00 0.57 0.01 95 1012.2
20260507081803 52 0 0.0 0.0 0.01 0.57 0.01 95 1012.3
20260507081703 52 0 0.0 0.0 0.01 0.57 0.01 95 1012.3
20260507081603 52 0 0.0 0.0 0.01 0.57 0.01 95 1012.3
20260507081503 52 0 0.0 0.0 0.01 0.57 0.01 95 1012.3
20260507081304 52 0 0.0 0.0 0.01 0.57 0.01 95 1012.2
20260507081204 52 0 0.0 0.0 0.01 0.57 0.01 95 1012.2
20260507081103 52 0 0.0 0.0 0.01 0.57 0.01 95 1012.1
20260507080904 52 0 0.0 0.0 0.01 0.57 0.01 95 1012.2
20260507080803 52 0 0.0 0.0 0.01 0.57 0.01 95 1012.1
20260507080703 52 0 0.0 0.0 0.01 0.57 0.01 95 1012.1
20260507080603 52 0 0.0 0.0 0.01 0.57 0.01 95 1012.1
20260507080504 52 0 0.0 0.0 0.01 0.57 0.01 95 1012.1
20260507080404 52 0 0.0 0.0 0.01 0.57 0.01 95 1012.0
20260507080303 52 0 0.0 0.0 0.01 0.57 0.01 95 1012.1
20260507080203 52 0 0.0 0.0 0.01 0.57 0.01 95 1012.1
20260507075903 52 0 0.0 0.0 0.01 0.57 0.01 95 1012.0
20260507075803 53 0 0.0 0.0 0.01 0.57 0.01 95 1012.0
20260507075703 53 0 0.0 0.0 0.01 0.57 0.01 95 1012.0
20260507075603 53 0 0.0 0.0 0.01 0.57 0.01 95 1012.0
20260507075504 53 0 0.0 0.0 0.01 0.57 0.01 95 1012.0
20260507075306 53 0 0.0 0.0 0.01 0.57 0.01 95 1012.1
20260507075203 53 0 0.0 0.0 0.01 0.57 0.01 95 1012.1
20260507075103 53 0 0.0 0.0 0.01 0.57 0.01 95 1012.2
20260507075003 53 0 0.0 0.0 0.01 0.57 0.01 95 1012.2
20260507074903 53 0 0.0 0.0 0.01 0.57 0.01 95 1012.2
20260507074803 53 0 0.0 0.0 0.01 0.57 0.01 95 1012.2
20260507074704 53 0 0.0 0.0 0.01 0.57 0.01 95 1012.2
20260507074604 53 0 0.0 0.0 0.01 0.57 0.01 95 1012.2
20260507074503 53 0 0.0 0.0 0.01 0.57 0.01 95 1012.2
20260507074404 53 0 0.0 0.0 0.01 0.57 0.01 95 1012.2
20260507074304 53 0 0.0 0.0 0.01 0.57 0.01 95 1012.3
20260507074203 53 0 0.0 0.0 0.01 0.57 0.01 95 1012.3
20260507074104 53 0 0.0 0.0 0.01 0.57 0.01 95 1012.3
20260507073904 53 0 0.0 0.0 0.01 0.57 0.01 95 1012.2
20260507073803 53 0 0.0 0.0 0.01 0.57 0.01 95 1012.2
20260507073704 53 0 0.0 0.0 0.01 0.57 0.01 95 1012.3
20260507073603 53 0 0.0 0.0 0.01 0.57 0.01 95 1012.3
20260507073503 53 0 0.0 0.0 0.01 0.57 0.01 95 1012.3
20260507073403 53 0 0.0 0.0 0.01 0.57 0.01 95 1012.3
20260507073304 53 0 0.0 0.0 0.01 0.57 0.01 95 1012.4
20260507073203 53 0 0.0 0.0 0.01 0.57 0.01 95 1012.4
20260507073103 53 0 0.0 0.0 0.01 0.57 0.01 95 1012.4
20260507073003 53 0 0.0 0.0 0.01 0.57 0.01 95 1012.3
20260507072904 53 0 0.0 0.0 0.01 0.57 0.01 95 1012.2
20260507072804 53 0 0.0 0.0 0.01 0.57 0.01 95 1012.2
20260507072703 53 0 0.0 0.0 0.01 0.57 0.01 95 1012.3
20260507072603 53 0 0.0 0.0 0.01 0.57 0.01 95 1012.3
20260507072503 53 0 0.0 0.0 0.01 0.57 0.01 95 1012.1
20260507072404 53 0 0.0 0.0 0.01 0.57 0.01 95 1012.1
20260507072306 53 0 0.0 0.0 0.01 0.57 0.01 95 1012.1
20260507072203 53 0 0.0 0.0 0.01 0.57 0.01 95 1011.9
20260507072103 53 0 0.0 0.0 0.01 0.57 0.01 95 1011.9
20260507072003 53 0 0.0 0.0 0.01 0.57 0.01 95 1011.8
20260507071903 53 0 0.0 0.0 0.01 0.57 0.01 95 1011.8
20260507071803 53 0 0.0 0.0 0.00 0.56 0.00 95 1011.8
20260507071719 53 0 0.0 0.0 0.00 0.56 0.00 95 1011.7
20260507071703 53 170 0.0 1.0 0.00 0.56 0.00 95 1011.7
20260507071403 53 170 0.0 1.0 0.00 0.56 0.00 95 1012.1
20260507071304 53 170 0.0 1.0 0.00 0.56 0.00 95 1012.1
20260507071203 53 170 0.0 1.0 0.00 0.56 0.00 95 1012.2
20260507071104 53 170 0.0 1.0 0.00 0.56 0.00 95 1012.3
20260507071003 53 170 0.0 1.0 0.00 0.56 0.00 95 1012.3
20260507070903 53 170 0.0 1.0 0.00 0.56 0.00 95 1012.3
20260507070803 53 170 0.0 1.0 0.00 0.56 0.00 95 1012.3
20260507070703 53 170 0.0 1.0 0.00 0.56 0.00 95 1012.4
20260507070404 53 170 0.0 1.0 0.00 0.56 0.00 95 1012.4
20260507070304 53 170 0.0 1.0 0.00 0.56 0.00 95 1012.4
20260507070203 53 170 0.0 1.0 0.00 0.56 0.00 95 1012.3
20260507070017 53 170 0.0 1.0 0.00 0.56 0.00 95 1012.2
20260507065903 53 0 0.0 0.0 0.00 0.56 0.00 95 1012.3
20260507065704 53 0 0.0 0.0 0.00 0.56 0.00 95 1012.3
20260507065603 53 170 0.0 1.0 0.00 0.56 0.00 95 1012.3
20260507065504 53 170 0.0 1.0 0.00 0.56 0.00 95 1012.3
20260507065305 53 170 0.0 1.0 0.00 0.56 0.00 95 1012.2
20260507065203 53 170 0.0 1.0 0.00 0.56 0.00 95 1012.2
20260507065103 53 170 0.0 1.0 0.00 0.56 0.00 95 1012.2
20260507065003 53 170 0.0 1.0 0.00 0.56 0.00 95 1012.2
20260507064904 53 170 0.0 1.0 0.00 0.56 0.00 95 1012.3
20260507064804 53 170 0.0 1.0 0.00 0.56 0.00 95 1012.3
20260507064703 53 170 0.0 1.0 0.00 0.56 0.00 95 1012.3
20260507064603 53 170 0.0 1.0 0.00 0.56 0.00 95 1012.2
20260507064504 53 170 0.0 1.0 0.00 0.56 0.00 95 1012.2
20260507064403 53 170 0.0 1.0 0.00 0.56 0.00 95 1012.2
20260507064104 53 170 0.0 1.0 0.00 0.56 0.00 95 1012.3
20260507064004 53 170 0.0 1.0 0.00 0.56 0.00 95 1012.3
20260507063903 53 170 0.0 1.0 0.00 0.56 0.00 95 1012.3
20260507063818 53 170 0.0 1.0 0.00 0.56 0.00 95 1012.4
20260507063804 53 0 0.0 0.0 0.00 0.56 0.00 95 1012.4
20260507063504 53 170 0.0 1.0 0.00 0.56 0.00 95 1012.4
20260507063404 53 170 0.0 1.0 0.00 0.56 0.00 95 1012.4
20260507063304 53 170 0.0 2.0 0.00 0.56 0.00 95 1012.4
20260507063203 53 170 0.0 2.0 0.00 0.56 0.00 95 1012.4
20260507063103 53 170 0.0 2.0 0.00 0.56 0.00 95 1012.3
20260507063003 53 170 0.0 2.0 0.00 0.56 0.00 95 1012.3
20260507062903 53 170 0.0 2.0 0.00 0.56 0.00 95 1012.3
20260507062804 53 170 0.0 2.0 0.00 0.56 0.00 95 1012.1
20260507062703 53 170 0.0 2.0 0.00 0.56 0.00 95 1012.1
20260507062604 53 170 0.0 2.0 0.00 0.56 0.00 95 1012.0
20260507062403 53 169 1.0 3.0 0.00 0.56 0.00 95 1012.0
20260507062306 53 169 0.0 3.0 0.00 0.56 0.00 95 1012.0
20260507062203 53 168 0.0 3.0 0.00 0.56 0.00 95 1011.9
20260507062104 53 168 0.0 3.0 0.00 0.56 0.00 95 1011.9
20260507062004 54 168 0.0 3.0 0.00 0.56 0.00 95 1011.8
20260507061903 53 168 0.0 3.0 0.00 0.56 0.00 95 1011.8
20260507061803 53 168 0.0 3.0 0.00 0.56 0.00 95 1011.8
20260507061704 54 168 0.0 3.0 0.00 0.56 0.00 95 1011.8
20260507061603 54 167 0.0 3.0 0.00 0.56 0.00 95 1011.8
20260507061503 54 166 0.0 3.0 0.00 0.56 0.00 95 1011.9
20260507061404 54 0 0.0 0.0 0.00 0.56 0.00 95 1011.9
20260507061303 54 47 0.0 1.0 0.00 0.56 0.00 95 1011.7
20260507061203 54 47 0.0 1.0 0.00 0.56 0.00 95 1011.7
20260507061103 54 47 0.0 1.0 0.00 0.56 0.00 95 1011.7
20260507061004 54 47 0.0 1.0 0.00 0.56 0.00 95 1011.8
20260507060919 54 47 0.0 1.0 0.00 0.56 0.00 95 1011.8
20260507060903 54 47 0.0 1.0 0.00 0.56 0.00 95 1012.0
20260507060803 54 47 0.0 1.0 0.00 0.56 0.00 95 1012.0
20260507060718 54 47 0.0 1.0 0.00 0.56 0.00 95 1012.1
20260507060603 54 47 0.0 1.0 0.00 0.56 0.00 95 1012.1
20260507060418 54 47 0.0 1.0 0.00 0.56 0.00 95 1012.2
20260507060403 54 47 0.0 1.0 0.00 0.56 0.00 95 1012.3
20260507060303 54 47 0.0 1.0 0.00 0.56 0.00 95 1012.3
20260507060004 54 47 0.0 1.0 0.00 0.56 0.00 95 1012.3
20260507055803 54 47 0.0 1.0 0.00 0.56 0.00 95 1012.2
20260507055703 54 47 0.0 1.0 0.00 0.56 0.00 95 1012.0
20260507055603 54 47 0.0 1.0 0.00 0.56 0.00 95 1012.0
20260507055503 54 47 0.0 1.0 0.00 0.56 0.00 95 1012.0
20260507055305 54 47 0.0 1.0 0.00 0.56 0.00 95 1012.1
20260507055204 54 47 0.0 1.0 0.00 0.56 0.00 95 1012.1
20260507055104 54 47 0.0 1.0 0.00 0.56 0.00 95 1012.2
20260507055004 54 47 0.0 1.0 0.00 0.56 0.00 95 1012.2
20260507054903 54 0 0.0 0.0 0.00 0.56 0.00 95 1012.3
20260507054804 54 0 0.0 0.0 0.00 0.56 0.00 95 1012.3
20260507054703 54 0 0.0 0.0 0.00 0.56 0.00 95 1012.2
20260507054603 54 0 0.0 0.0 0.00 0.56 0.00 95 1012.2
20260507054503 54 47 0.0 1.0 0.00 0.56 0.00 95 1012.2
20260507054403 54 47 0.0 1.0 0.00 0.56 0.00 95 1012.2
20260507054304 54 47 0.0 1.0 0.00 0.56 0.00 95 1012.2
20260507054203 54 47 0.0 1.0 0.00 0.56 0.00 95 1012.3
20260507054103 54 47 0.0 1.0 0.00 0.56 0.00 95 1012.4
20260507053803 54 47 0.0 1.0 0.00 0.56 0.00 95 1012.5
20260507053703 54 47 0.0 1.0 0.00 0.56 0.00 95 1012.5
20260507053603 54 47 0.0 1.0 0.00 0.56 0.00 95 1012.6
20260507053503 54 47 0.0 1.0 0.00 0.56 0.00 95 1012.6
20260507053403 54 47 0.0 1.0 0.00 0.56 0.00 95 1012.8
20260507053303 54 0 0.0 0.0 0.00 0.56 0.00 95 1012.8
20260507053103 54 0 0.0 0.0 0.00 0.56 0.00 95 1012.7
20260507053003 54 0 0.0 0.0 0.00 0.56 0.00 95 1012.7
20260507052903 54 0 0.0 0.0 0.00 0.56 0.00 95 1012.5
20260507052803 54 0 0.0 0.0 0.00 0.56 0.00 95 1012.6
20260507052704 54 0 0.0 0.0 0.00 0.56 0.00 95 1012.6
20260507052603 54 47 0.0 1.0 0.00 0.56 0.00 95 1012.8
20260507052503 54 47 0.0 1.0 0.00 0.56 0.00 95 1012.8
20260507052403 54 47 0.0 1.0 0.00 0.56 0.00 95 1013.0
20260507052306 54 47 0.0 1.0 0.00 0.56 0.00 95 1013.0
20260507052217 54 47 0.0 1.0 0.00 0.56 0.00 95 1013.0
20260507052103 54 47 0.0 1.0 0.00 0.56 0.00 95 1013.2
20260507051803 54 47 0.0 1.0 0.00 0.56 0.00 95 1013.2
20260507051703 54 47 0.0 1.0 0.00 0.56 0.00 95 1013.2
20260507051503 54 0 0.0 0.0 0.00 0.56 0.00 95 1013.0
20260507051403 54 0 0.0 0.0 0.00 0.56 0.00 95 1013.0
20260507051303 54 0 0.0 0.0 0.00 0.56 0.00 95 1013.2
20260507051203 54 0 0.0 0.0 0.00 0.56 0.00 95 1013.2
20260507051104 54 0 0.0 0.0 0.00 0.56 0.00 95 1013.3
20260507051003 54 0 0.0 0.0 0.00 0.56 0.00 95 1013.3
20260507050904 54 47 0.0 1.0 0.00 0.56 0.00 95 1013.3
20260507050803 54 47 0.0 1.0 0.00 0.56 0.00 95 1013.1
20260507050718 54 47 0.0 1.0 0.00 0.56 0.00 95 1013.1
20260507050403 54 47 0.0 1.0 0.00 0.56 0.00 95 1012.9
20260507050303 54 47 0.0 1.0 0.00 0.56 0.00 95 1012.9
20260507050217 54 47 0.0 1.0 0.00 0.56 0.00 95 1012.9
20260507050204 54 47 0.0 1.0 0.00 0.56 0.00 95 1013.0
20260507050103 54 47 0.0 1.0 0.00 0.56 0.00 95 1013.0
20260507045903 54 47 0.0 1.0 0.00 0.56 0.56 95 1013.0
20260507045803 54 47 0.0 1.0 0.00 0.56 0.56 95 1013.1
20260507045703 54 0 0.0 0.0 0.00 0.56 0.56 95 1013.1
20260507045603 54 0 0.0 0.0 0.00 0.56 0.56 95 1013.1
20260507045517 54 0 0.0 0.0 0.00 0.56 0.56 95 1013.1
20260507045504 54 0 0.0 0.0 0.00 0.56 0.56 95 1013.2
20260507045404 54 0 0.0 0.0 0.00 0.56 0.56 95 1013.2
20260507045204 54 47 0.0 1.0 0.00 0.56 0.56 95 1013.3
20260507045104 54 47 0.0 1.0 0.00 0.56 0.56 95 1013.3
20260507045004 54 47 0.0 1.0 0.00 0.56 0.56 95 1013.3
20260507044904 54 47 0.0 1.0 0.00 0.56 0.56 95 1013.3
20260507044804 54 47 0.0 1.0 0.00 0.56 0.56 95 1013.4
20260507044704 54 47 0.0 1.0 0.00 0.56 0.56 95 1013.4
20260507044603 54 47 0.0 1.0 0.00 0.56 0.56 95 1013.5
20260507044504 54 47 0.0 1.0 0.00 0.56 0.56 95 1013.4
20260507044404 54 47 0.0 1.0 0.00 0.56 0.56 95 1013.4
20260507044303 54 47 0.0 1.0 0.00 0.56 0.56 95 1013.3
20260507044204 54 47 0.0 1.0 0.00 0.56 0.56 95 1013.3
20260507044104 54 47 0.0 1.0 0.00 0.56 0.56 95 1013.3
20260507044004 54 47 0.0 1.0 0.00 0.56 0.56 95 1013.3
20260507043903 54 47 0.0 1.0 0.00 0.56 0.56 95 1013.3
20260507043803 54 0 0.0 0.0 0.00 0.56 0.56 95 1013.2
20260507043704 54 0 0.0 0.0 0.00 0.56 0.56 95 1013.1
20260507043604 54 0 0.0 0.0 0.00 0.56 0.56 95 1013.1
20260507043503 54 0 0.0 0.0 0.00 0.56 0.56 95 1012.9
20260507043404 54 0 0.0 0.0 0.00 0.56 0.56 95 1012.9
20260507043104 54 0 0.0 0.0 0.00 0.56 0.56 95 1013.0
20260507043004 54 0 0.0 0.0 0.00 0.56 0.56 95 1012.9
20260507042903 54 0 0.0 0.0 0.00 0.56 0.56 95 1012.9
20260507042803 54 0 0.0 0.0 0.00 0.56 0.56 95 1012.8
20260507042703 54 47 0.0 1.0 0.00 0.56 0.56 95 1012.7
20260507042603 54 47 0.0 1.0 0.00 0.56 0.56 95 1012.7
20260507042403 54 47 0.0 1.0 0.00 0.56 0.56 95 1012.5
20260507042306 54 47 0.0 1.0 0.00 0.56 0.56 95 1012.5
20260507042203 54 47 0.0 1.0 0.00 0.56 0.56 95 1012.5
20260507042104 54 47 0.0 1.0 0.00 0.56 0.56 95 1012.5
20260507041904 54 47 0.0 1.0 0.00 0.56 0.56 95 1012.6
20260507041803 54 47 0.0 1.0 0.00 0.56 0.56 95 1012.6
20260507041704 54 47 0.0 1.0 0.00 0.56 0.56 95 1012.9
20260507041603 54 47 0.0 1.0 0.00 0.56 0.56 95 1012.9
20260507041504 54 47 0.0 1.0 0.00 0.56 0.56 95 1012.8
20260507041404 54 47 0.0 1.0 0.00 0.56 0.56 95 1012.9
20260507041304 54 47 0.0 1.0 0.00 0.56 0.56 95 1012.9
20260507041203 54 47 0.0 1.0 0.00 0.56 0.56 95 1013.0
20260507041103 54 47 0.0 1.0 0.00 0.56 0.56 95 1013.0
20260507041003 54 47 0.0 1.0 0.00 0.56 0.56 95 1012.9
20260507040903 54 47 0.0 1.0 0.00 0.56 0.56 95 1012.8
20260507040803 54 47 0.0 1.0 0.00 0.56 0.56 95 1012.8
20260507040703 54 47 0.0 1.0 0.00 0.56 0.56 95 1012.7
20260507040603 54 47 0.0 1.0 0.00 0.56 0.56 95 1012.7
20260507040403 54 47 0.0 1.0 0.00 0.56 0.56 95 1012.7
20260507040303 54 47 0.0 1.0 0.00 0.56 0.56 95 1012.7
20260507040203 54 47 0.0 1.0 0.00 0.56 0.56 95 1012.7
20260507040104 54 47 0.0 1.0 0.00 0.56 0.56 95 1012.6
20260507040003 54 47 0.0 1.0 0.00 0.56 0.56 95 1012.6
20260507035903 54 47 0.0 1.0 0.00 0.56 0.56 95 1012.6
20260507035804 54 47 0.0 1.0 0.00 0.56 0.56 95 1012.6
20260507035703 54 47 0.0 1.0 0.00 0.56 0.56 95 1012.6
20260507035603 54 47 0.0 1.0 0.00 0.56 0.56 94 1012.7
20260507035306 54 47 0.0 1.0 0.00 0.56 0.56 94 1012.8
20260507035203 54 47 0.0 2.0 0.00 0.56 0.56 94 1012.8
20260507035103 54 47 0.0 2.0 0.00 0.56 0.56 95 1012.8
20260507035003 54 47 0.0 2.0 0.00 0.56 0.56 95 1012.8
20260507034903 54 47 0.0 2.0 0.00 0.56 0.56 94 1013.0
20260507034803 54 47 0.0 2.0 0.00 0.56 0.56 94 1013.1
20260507034704 54 47 0.0 2.0 0.00 0.56 0.56 94 1013.1
20260507034603 54 47 0.0 2.0 0.00 0.56 0.56 94 1012.8
20260507034503 54 47 0.0 2.0 0.00 0.56 0.56 94 1012.8
20260507034404 54 47 1.0 2.0 0.00 0.56 0.56 94 1012.7
20260507034303 54 47 0.0 2.0 0.00 0.56 0.56 94 1012.6
20260507034104 54 47 0.0 2.0 0.00 0.56 0.56 94 1012.6
20260507034003 54 47 0.0 2.0 0.00 0.56 0.56 94 1012.6
20260507033904 54 47 0.0 1.0 0.00 0.56 0.56 94 1012.4
20260507033803 54 47 0.0 1.0 0.00 0.56 0.56 94 1012.5
20260507033704 54 47 0.0 2.0 0.00 0.56 0.56 94 1012.5
20260507033604 54 47 0.0 2.0 0.00 0.56 0.56 94 1012.8
20260507033516 54 47 0.0 2.0 0.00 0.56 0.56 94 1012.8
20260507033403 54 47 0.0 2.0 0.00 0.56 0.56 94 1012.9
20260507033103 54 47 0.0 2.0 0.00 0.56 0.56 94 1012.9
20260507033004 54 47 0.0 2.0 0.00 0.56 0.56 94 1012.8
20260507032804 54 47 0.0 2.0 0.00 0.56 0.56 94 1012.6
20260507032704 54 47 0.0 2.0 0.00 0.56 0.56 94 1012.6
20260507032603 54 47 0.0 2.0 0.00 0.56 0.56 94 1012.5
20260507032503 54 47 0.0 2.0 0.00 0.56 0.56 94 1012.5
20260507032404 54 47 0.0 2.0 0.00 0.56 0.56 94 1012.5
20260507032306 54 47 0.0 2.0 0.00 0.56 0.56 94 1012.5
20260507032203 54 47 0.0 2.0 0.00 0.56 0.56 95 1012.5
20260507032004 54 47 0.0 2.0 0.00 0.56 0.56 94 1012.6
20260507031904 54 47 0.0 2.0 0.00 0.56 0.56 95 1012.6
20260507031704 54 47 0.0 2.0 0.00 0.56 0.56 95 1012.7
20260507031603 54 47 0.0 2.0 0.00 0.56 0.56 94 1012.7
20260507031503 54 47 0.0 2.0 0.00 0.56 0.56 95 1012.8
20260507031404 54 47 0.0 2.0 0.00 0.56 0.56 95 1012.8
20260507031304 54 47 0.0 2.0 0.00 0.56 0.56 95 1012.7
20260507031204 54 47 0.0 2.0 0.00 0.56 0.56 95 1012.7
20260507031104 54 47 0.0 1.0 0.00 0.56 0.56 95 1012.7
20260507031004 54 47 0.0 1.0 0.00 0.56 0.56 95 1012.6
20260507030903 54 47 0.0 1.0 0.00 0.56 0.56 95 1012.6
20260507030804 54 47 0.0 1.0 0.01 0.56 0.56 95 1012.5
20260507030704 54 47 0.0 1.0 0.01 0.56 0.56 95 1012.5
20260507030604 54 47 0.0 1.0 0.01 0.56 0.56 95 1012.5
20260507030504 54 47 0.0 1.0 0.02 0.56 0.56 95 1012.7
20260507030403 54 47 0.0 1.0 0.02 0.56 0.56 94 1012.7
20260507030304 54 47 0.0 1.0 0.02 0.56 0.56 94 1012.6
20260507030203 54 47 0.0 1.0 0.02 0.56 0.56 95 1012.6
20260507030004 54 47 0.0 2.0 0.02 0.56 0.56 94 1012.6
20260507025903 54 47 0.0 2.0 0.02 0.56 0.56 94 1012.7
20260507025803 54 47 0.0 2.0 0.02 0.56 0.56 95 1012.7
20260507025703 54 47 0.0 2.0 0.02 0.56 0.56 95 1012.7
20260507025604 54 47 1.0 2.0 0.02 0.56 0.56 95 1012.7
20260507025503 54 47 1.0 2.0 0.02 0.56 0.56 95 1012.7
20260507025403 54 47 1.0 2.0 0.02 0.56 0.56 95 1012.8
20260507025306 54 47 1.0 3.0 0.02 0.56 0.56 95 1012.8
20260507025203 54 47 1.0 3.0 0.02 0.56 0.56 95 1012.8
20260507025103 54 46 1.0 3.0 0.02 0.56 0.56 95 1012.8
20260507025003 54 40 1.0 3.0 0.02 0.56 0.56 94 1012.8
20260507024903 54 32 1.0 3.0 0.02 0.56 0.56 95 1012.7
20260507024803 55 22 1.0 3.0 0.02 0.56 0.56 94 1012.7
20260507024703 55 19 1.0 3.0 0.02 0.56 0.56 94 1012.6
20260507024603 55 13 1.0 3.0 0.03 0.56 0.56 94 1012.5
20260507024503 55 5 1.0 3.0 0.03 0.56 0.56 94 1012.5
20260507024403 55 359 1.0 3.0 0.03 0.56 0.56 94 1012.5
20260507024303 55 348 1.0 3.0 0.03 0.56 0.56 94 1012.5
20260507024204 55 341 1.0 3.0 0.03 0.56 0.56 94 1012.3
20260507024103 55 329 1.0 2.0 0.03 0.56 0.56 95 1012.3
20260507024003 55 329 0.0 2.0 0.03 0.56 0.56 95 1012.3
20260507023903 55 329 0.0 2.0 0.03 0.56 0.56 95 1012.4
20260507023803 55 328 0.0 2.0 0.04 0.56 0.56 95 1012.4
20260507023703 55 331 0.0 2.0 0.04 0.56 0.56 95 1012.4
20260507023604 55 336 0.0 2.0 0.04 0.56 0.56 95 1012.4
20260507023518 55 341 0.0 2.0 0.04 0.56 0.56 95 1012.4
20260507023504 55 342 0.0 2.0 0.04 0.56 0.56 95 1012.4
20260507023404 55 343 1.0 2.0 0.04 0.56 0.56 95 1012.5
20260507023203 55 344 1.0 3.0 0.04 0.56 0.56 95 1012.6
20260507023117 55 343 1.0 3.0 0.04 0.56 0.56 95 1012.6
20260507023104 55 342 1.0 3.0 0.04 0.56 0.56 95 1012.6
20260507023003 55 336 1.0 3.0 0.04 0.56 0.56 95 1012.6
20260507022803 55 324 1.0 3.0 0.04 0.56 0.56 95 1012.5
20260507022703 55 272 1.0 3.0 0.04 0.56 0.56 95 1012.5
20260507022604 55 214 1.0 3.0 0.04 0.56 0.56 95 1012.5
20260507022518 55 200 1.0 3.0 0.04 0.56 0.56 95 1012.5
20260507022503 55 196 1.0 3.0 0.04 0.56 0.56 95 1012.5
20260507022404 55 186 0.0 3.0 0.04 0.56 0.56 95 1012.5
20260507022203 55 181 0.0 2.0 0.04 0.56 0.56 95 1012.4
20260507022103 55 181 0.0 2.0 0.04 0.56 0.56 95 1012.5
20260507022004 55 181 0.0 2.0 0.04 0.56 0.56 95 1012.5
20260507021903 55 0 0.0 0.0 0.04 0.56 0.56 95 1012.4
20260507021803 55 0 0.0 0.0 0.04 0.56 0.56 95 1012.5
20260507021703 55 0 0.0 0.0 0.04 0.56 0.56 95 1012.5
20260507021603 55 0 0.0 0.0 0.04 0.56 0.56 95 1012.5
20260507021504 55 0 0.0 0.0 0.05 0.56 0.56 95 1012.5
20260507021404 55 0 0.0 0.0 0.05 0.56 0.56 95 1012.5
20260507021203 55 0 0.0 0.0 0.05 0.56 0.56 95 1012.4
20260507021104 55 0 0.0 0.0 0.05 0.56 0.56 95 1012.5
20260507021003 55 0 0.0 0.0 0.05 0.56 0.56 95 1012.6
20260507020904 55 0 0.0 0.0 0.05 0.56 0.56 95 1012.6
20260507020803 56 0 0.0 0.0 0.04 0.55 0.55 95 1012.7
20260507020704 55 0 0.0 0.0 0.04 0.55 0.55 95 1012.7
20260507020603 55 0 0.0 0.0 0.04 0.55 0.55 95 1012.7
20260507020503 55 0 0.0 0.0 0.03 0.54 0.54 95 1012.6
20260507020403 55 0 0.0 0.0 0.03 0.54 0.54 95 1012.6
20260507020303 55 0 0.0 0.0 0.03 0.54 0.54 95 1012.9
20260507020103 55 0 0.0 0.0 0.03 0.54 0.54 95 1013.3
20260507020003 55 0 0.0 0.0 0.03 0.54 0.54 95 1013.3
20260507015903 55 0 0.0 0.0 0.03 0.54 0.54 95 1013.3
20260507015803 55 0 0.0 0.0 0.03 0.54 0.54 94 1013.1
20260507015704 55 0 0.0 0.0 0.03 0.54 0.54 95 1013.1
20260507015603 55 0 0.0 0.0 0.03 0.54 0.54 95 1013.0
20260507015503 55 0 0.0 0.0 0.03 0.54 0.54 95 1013.0
20260507015404 55 0 0.0 0.0 0.03 0.54 0.54 95 1013.0
20260507015204 56 0 0.0 0.0 0.03 0.54 0.54 95 1013.0
20260507015104 55 0 0.0 0.0 0.03 0.54 0.54 95 1013.0
20260507015003 56 0 0.0 0.0 0.03 0.55 0.54 95 1012.9
20260507014904 56 0 0.0 0.0 0.03 0.55 0.54 94 1012.9
20260507014804 56 0 0.0 0.0 0.03 0.55 0.54 95 1012.9
20260507014704 56 0 0.0 0.0 0.03 0.55 0.54 94 1013.1
20260507014603 56 0 0.0 0.0 0.02 0.54 0.53 94 1013.1
20260507014504 56 0 0.0 0.0 0.02 0.54 0.53 94 1013.3
20260507014404 56 0 0.0 0.0 0.02 0.54 0.53 94 1013.3
20260507014303 56 0 0.0 0.0 0.02 0.54 0.53 94 1013.2
20260507014203 56 0 0.0 0.0 0.02 0.54 0.53 94 1013.3
20260507014003 56 0 0.0 0.0 0.02 0.54 0.53 94 1013.0
20260507013903 56 0 0.0 0.0 0.02 0.54 0.53 94 1013.3
20260507013804 56 0 0.0 0.0 0.01 0.53 0.53 94 1013.3
20260507013703 56 0 0.0 0.0 0.01 0.53 0.52 94 1013.6
20260507013603 56 0 0.0 0.0 0.01 0.53 0.52 94 1013.6
20260507013503 56 0 0.0 0.0 0.01 0.53 0.52 94 1014.0
20260507013304 56 0 0.0 0.0 0.01 0.53 0.52 94 1014.1
20260507013203 56 0 0.0 0.0 0.01 0.53 0.52 94 1013.5
20260507013103 56 0 0.0 0.0 0.01 0.53 0.52 94 1013.5
20260507013003 56 0 0.0 0.0 0.01 0.53 0.52 94 1012.7
20260507012903 56 0 0.0 0.0 0.01 0.53 0.52 94 1012.4
20260507012803 56 0 0.0 0.0 0.01 0.53 0.52 94 1012.4
20260507012704 56 0 0.0 0.0 0.01 0.53 0.52 94 1012.1
20260507012603 56 0 0.0 0.0 0.01 0.53 0.52 94 1012.1
20260507012503 56 0 0.0 0.0 0.01 0.53 0.52 94 1011.9
20260507012404 56 0 0.0 0.0 0.01 0.53 0.52 94 1011.9
20260507012306 56 0 0.0 0.0 0.01 0.53 0.52 94 1011.9
20260507012204 56 0 0.0 0.0 0.01 0.53 0.52 94 1011.8
20260507012118 56 0 0.0 0.0 0.01 0.53 0.52 94 1011.8
20260507012003 56 0 0.0 0.0 0.01 0.53 0.52 94 1011.9
20260507011703 56 0 0.0 0.0 0.01 0.53 0.52 94 1012.3
20260507011603 56 0 0.0 0.0 0.01 0.53 0.52 94 1012.5
20260507011503 56 0 0.0 0.0 0.00 0.52 0.51 94 1012.5
20260507011403 56 0 0.0 0.0 0.00 0.52 0.51 94 1012.9
20260507011303 56 0 0.0 0.0 0.00 0.52 0.51 94 1012.9
20260507011203 56 0 0.0 0.0 0.00 0.52 0.51 94 1013.0
20260507011103 56 0 0.0 0.0 0.00 0.52 0.51 94 1012.9
20260507011003 56 0 0.0 0.0 0.00 0.52 0.51 94 1012.9
20260507010803 56 0 0.0 0.0 0.00 0.52 0.51 94 1012.8
20260507010704 56 0 0.0 0.0 0.00 0.52 0.51 94 1012.7
20260507010604 56 0 0.0 0.0 0.00 0.52 0.51 94 1012.6
20260507010503 56 0 0.0 0.0 0.00 0.52 0.51 94 1012.6
20260507010403 56 0 0.0 0.0 0.00 0.52 0.51 94 1012.5
20260507010303 56 0 0.0 0.0 0.00 0.52 0.51 94 1012.5
20260507010203 56 0 0.0 0.0 0.00 0.52 0.51 94 1012.5
20260507010104 56 0 0.0 0.0 0.00 0.52 0.51 94 1012.5
20260507010004 56 0 0.0 0.0 0.01 0.52 0.51 94 1012.5
20260507005903 56 0 0.0 0.0 0.01 0.52 0.51 94 1012.4
20260507005803 56 0 0.0 0.0 0.01 0.52 0.51 94 1012.3
20260507005703 56 0 0.0 0.0 0.01 0.53 0.51 94 1012.3
20260507005603 56 0 0.0 0.0 0.01 0.53 0.51 94 1012.0
20260507005404 56 0 0.0 0.0 0.01 0.53 0.51 94 1011.8
20260507005306 56 0 0.0 0.0 0.01 0.53 0.51 94 1011.7
20260507005204 56 0 0.0 0.0 0.01 0.53 0.51 94 1011.7
20260507005103 56 0 0.0 0.0 0.01 0.53 0.51 94 1011.6
20260507005003 56 0 0.0 0.0 0.01 0.53 0.51 94 1011.4
20260507004903 56 0 0.0 0.0 0.01 0.54 0.51 94 1011.4
20260507004803 56 0 0.0 0.0 0.01 0.54 0.51 94 1011.2
20260507004703 56 0 0.0 0.0 0.01 0.54 0.51 94 1011.2
20260507004603 56 0 0.0 0.0 0.01 0.54 0.51 94 1010.9
20260507004503 56 0 0.0 0.0 0.01 0.54 0.51 94 1010.8
20260507004403 56 0 0.0 0.0 0.01 0.54 0.51 94 1010.8
20260507004303 56 0 0.0 0.0 0.01 0.54 0.51 94 1010.7
20260507004204 56 0 0.0 0.0 0.01 0.54 0.51 94 1010.7
20260507004104 56 0 0.0 0.0 0.01 0.54 0.51 94 1010.6
20260507004004 56 0 0.0 0.0 0.01 0.54 0.51 94 1010.6
20260507003903 56 0 0.0 0.0 0.01 0.54 0.51 94 1010.6
20260507003703 56 0 0.0 0.0 0.01 0.54 0.51 94 1010.4
20260507003604 56 0 0.0 0.0 0.01 0.54 0.51 94 1010.4
20260507003519 56 0 0.0 0.0 0.01 0.54 0.51 94 1010.4
20260507003404 56 0 0.0 0.0 0.01 0.54 0.51 94 1010.4
20260507003204 56 0 0.0 0.0 0.01 0.54 0.51 94 1010.6
20260507003104 56 0 0.0 0.0 0.01 0.54 0.51 94 1010.6
20260507003003 56 0 0.0 0.0 0.01 0.54 0.51 94 1010.6
20260507002903 56 0 0.0 0.0 0.01 0.54 0.51 94 1010.6
20260507002803 56 0 0.0 0.0 0.01 0.54 0.51 94 1010.7
20260507002704 56 0 0.0 0.0 0.01 0.54 0.51 94 1010.7
20260507002604 56 0 0.0 0.0 0.01 0.54 0.51 94 1010.7
20260507002404 56 0 0.0 0.0 0.01 0.54 0.51 94 1010.8
20260507002306 56 0 0.0 0.0 0.01 0.54 0.51 94 1010.9
20260507002203 56 0 0.0 0.0 0.01 0.54 0.51 94 1011.0
20260507002104 56 181 0.0 1.0 0.01 0.54 0.51 94 1011.0
20260507001903 56 181 0.0 1.0 0.02 0.54 0.51 94 1011.0
20260507001803 56 181 0.0 1.0 0.02 0.54 0.51 94 1011.0
20260507001704 56 181 0.0 1.0 0.02 0.54 0.51 94 1010.9
20260507001603 56 181 0.0 1.0 0.02 0.54 0.51 94 1010.9
20260507001504 56 181 0.0 1.0 0.02 0.54 0.51 94 1010.9
20260507001404 56 181 0.0 1.0 0.02 0.54 0.51 94 1010.9
20260507001304 56 181 0.0 1.0 0.02 0.54 0.51 94 1010.9
20260507001204 56 181 0.0 1.0 0.02 0.54 0.51 94 1011.0
20260507001103 56 181 0.0 1.0 0.02 0.54 0.51 94 1011.0
20260507001003 56 181 0.0 1.0 0.02 0.54 0.51 94 1011.1
20260507000903 56 181 0.0 1.0 0.02 0.54 0.51 94 1011.1
20260507000804 56 181 0.0 1.0 0.02 0.54 0.51 94 1011.1
20260507000703 56 181 0.0 1.0 0.02 0.54 0.51 94 1011.2
20260507000405 56 181 0.0 1.0 0.02 0.54 0.51 94 1011.3
20260507000306 56 181 0.0 1.0 0.02 0.54 0.51 94 1011.3
20260507000219 56 181 0.0 2.0 0.02 0.54 0.51 94 1011.4
20260506235803 56 181 0.0 2.0 0.01 0.53 0.50 94 1011.4
20260506235703 56 181 0.0 2.0 0.01 0.53 0.50 94 1011.4
20260506235604 56 181 0.0 2.0 0.01 0.53 0.50 94 1011.4
20260506235503 56 181 0.0 2.0 0.01 0.53 0.50 94 1011.4
20260506235306 56 181 0.0 2.0 0.01 0.53 0.50 94 1011.6
20260506235204 56 181 0.0 1.0 0.01 0.53 0.50 94 1012.2
20260506235104 56 0 0.0 0.0 0.01 0.53 0.50 94 1012.2
20260506235004 56 0 0.0 0.0 0.01 0.53 0.50 94 1012.2
20260506234919 56 0 0.0 0.0 0.01 0.53 0.50 94 1012.3
20260506234804 56 0 0.0 0.0 0.01 0.53 0.50 94 1012.3
20260506234603 56 0 0.0 0.0 0.01 0.53 0.50 94 1012.0
20260506234503 56 0 0.0 0.0 0.01 0.53 0.50 94 1012.0
20260506234404 56 0 0.0 0.0 0.01 0.53 0.50 94 1012.0
20260506234303 56 0 0.0 0.0 0.01 0.53 0.50 94 1011.8
20260506234103 56 0 0.0 0.0 0.01 0.53 0.50 94 1011.7
20260506234003 56 0 0.0 0.0 0.01 0.53 0.50 94 1011.7
20260506233903 56 0 0.0 0.0 0.01 0.53 0.50 94 1011.8
20260506233804 56 0 0.0 0.0 0.01 0.53 0.50 94 1011.8
20260506233604 56 0 0.0 0.0 0.01 0.53 0.50 94 1011.6
20260506233503 56 0 0.0 0.0 0.01 0.53 0.50 94 1011.6
20260506233404 56 0 0.0 0.0 0.01 0.53 0.50 94 1011.8
20260506233318 56 0 0.0 0.0 0.01 0.53 0.50 94 1011.8
20260506233303 56 0 0.0 0.0 0.01 0.53 0.50 94 1011.9
20260506233204 56 0 0.0 0.0 0.01 0.53 0.50 94 1011.9
20260506233003 56 0 0.0 0.0 0.01 0.53 0.50 94 1011.8
20260506232903 56 0 0.0 0.0 0.01 0.53 0.50 94 1011.9
20260506232804 56 0 0.0 0.0 0.01 0.53 0.50 94 1011.9
20260506232705 56 0 0.0 0.0 0.01 0.53 0.50 94 1011.9
20260506232603 56 0 0.0 0.0 0.01 0.53 0.50 94 1012.0
20260506232504 56 0 0.0 0.0 0.01 0.53 0.50 94 1012.0
20260506232403 56 0 0.0 0.0 0.01 0.53 0.50 94 1012.0
20260506232306 56 0 0.0 0.0 0.01 0.53 0.50 94 1012.1
20260506232204 56 0 0.0 0.0 0.01 0.53 0.50 94 1012.1
20260506232104 56 0 0.0 0.0 0.01 0.53 0.50 94 1012.0
20260506231904 56 0 0.0 0.0 0.00 0.52 0.49 94 1012.0
20260506231803 56 0 0.0 0.0 0.00 0.52 0.49 94 1011.9
20260506231704 56 0 0.0 0.0 0.00 0.52 0.49 94 1011.9
20260506231604 56 0 0.0 0.0 0.00 0.52 0.49 94 1012.0
20260506231503 56 0 0.0 0.0 0.00 0.52 0.49 94 1012.1
20260506231404 56 0 0.0 0.0 0.00 0.52 0.49 94 1012.1
20260506231304 56 0 0.0 0.0 0.00 0.52 0.49 94 1012.0
20260506231204 56 0 0.0 0.0 0.00 0.52 0.49 94 1012.0
20260506231103 56 0 0.0 0.0 0.00 0.52 0.49 94 1011.8
20260506231003 56 0 0.0 0.0 0.00 0.52 0.49 94 1011.8
20260506230904 56 0 0.0 0.0 0.00 0.52 0.49 94 1011.8
20260506230803 56 0 0.0 0.0 0.00 0.52 0.49 94 1011.9
20260506230718 56 0 0.0 0.0 0.00 0.52 0.49 94 1011.9
20260506230704 56 0 0.0 0.0 0.00 0.52 0.49 94 1012.1
20260506230603 56 0 0.0 0.0 0.00 0.52 0.49 94 1012.1
20260506230517 56 0 0.0 0.0 0.00 0.52 0.49 94 1012.1
20260506230203 56 0 0.0 0.0 0.00 0.52 0.49 94 1012.0
20260506230103 56 0 0.0 0.0 0.00 0.52 0.49 94 1012.0
20260506225904 56 0 0.0 0.0 0.00 0.52 0.49 94 1012.0
20260506225803 56 0 0.0 0.0 0.00 0.52 0.49 94 1012.1
20260506225703 56 0 0.0 0.0 0.00 0.52 0.49 94 1012.2
20260506225603 56 0 0.0 0.0 0.00 0.52 0.49 94 1012.2
20260506225503 56 0 0.0 0.0 0.00 0.52 0.49 94 1012.2
20260506225403 56 0 0.0 0.0 0.00 0.52 0.49 94 1012.2
20260506225305 56 0 0.0 0.0 0.00 0.52 0.49 94 1012.2
20260506225203 56 0 0.0 0.0 0.00 0.52 0.49 94 1012.3
20260506225103 56 0 0.0 0.0 0.00 0.52 0.49 94 1012.3
20260506225003 56 0 0.0 0.0 0.00 0.52 0.49 94 1012.3
20260506224903 56 0 0.0 0.0 0.00 0.52 0.49 94 1012.2
20260506224803 56 0 0.0 0.0 0.00 0.52 0.49 94 1012.2
20260506224704 56 0 0.0 0.0 0.00 0.52 0.49 94 1012.0
20260506224604 56 0 0.0 0.0 0.00 0.52 0.49 94 1012.0
20260506224503 56 0 0.0 0.0 0.00 0.52 0.49 94 1012.2
20260506224403 56 0 0.0 0.0 0.00 0.52 0.49 94 1012.2
20260506224304 56 0 0.0 0.0 0.00 0.52 0.49 94 1012.2
20260506224104 56 0 0.0 0.0 0.00 0.52 0.49 94 1012.3
20260506224004 56 0 0.0 0.0 0.00 0.52 0.49 94 1012.3
20260506223903 56 0 0.0 0.0 0.00 0.52 0.49 94 1012.2
20260506223804 56 0 0.0 0.0 0.00 0.52 0.49 94 1012.2
20260506223704 56 0 0.0 0.0 0.00 0.52 0.49 94 1012.2
20260506223603 56 0 0.0 0.0 0.00 0.52 0.49 94 1012.3
20260506223503 56 0 0.0 0.0 0.00 0.52 0.49 94 1012.3
20260506223403 56 0 0.0 0.0 0.00 0.52 0.49 94 1012.3
20260506223303 56 0 0.0 0.0 0.00 0.52 0.49 94 1012.3
20260506223204 56 0 0.0 0.0 0.00 0.52 0.49 94 1012.3
20260506223117 56 0 0.0 0.0 0.00 0.52 0.49 94 1012.3
20260506223003 56 0 0.0 0.0 0.00 0.52 0.49 94 1012.3
20260506222803 56 0 0.0 0.0 0.00 0.52 0.49 94 1012.5
20260506222703 56 0 0.0 0.0 0.00 0.52 0.49 94 1012.5
20260506222603 56 0 0.0 0.0 0.00 0.52 0.49 94 1012.5
20260506222504 56 0 0.0 0.0 0.00 0.52 0.49 94 1012.5
20260506222404 56 0 0.0 0.0 0.00 0.52 0.49 94 1012.6
20260506222318 56 0 0.0 0.0 0.00 0.52 0.49 94 1012.6
20260506222003 56 0 0.0 0.0 0.00 0.52 0.49 94 1012.6
20260506221903 56 0 0.0 0.0 0.00 0.52 0.49 94 1012.6
20260506221803 56 199 0.0 1.0 0.00 0.52 0.49 94 1012.6
20260506221705 56 199 0.0 1.0 0.00 0.52 0.49 94 1012.6
20260506221603 56 199 0.0 1.0 0.00 0.52 0.49 94 1012.6
20260506221504 56 199 0.0 1.0 0.00 0.52 0.49 94 1012.6
20260506221403 56 199 0.0 1.0 0.00 0.52 0.49 94 1012.5
20260506221304 56 199 0.0 1.0 0.00 0.52 0.49 94 1012.5
20260506221203 56 199 0.0 1.0 0.01 0.52 0.49 94 1012.5
20260506221103 56 199 0.0 1.0 0.01 0.52 0.49 94 1012.4
20260506221003 56 199 0.0 1.0 0.01 0.52 0.49 94 1012.4
20260506220903 56 199 0.0 1.0 0.01 0.52 0.49 94 1012.3
20260506220804 56 199 0.0 1.0 0.01 0.52 0.49 94 1012.2
20260506220703 56 199 0.0 1.0 0.01 0.52 0.49 94 1012.2
20260506220503 56 199 0.0 1.0 0.01 0.52 0.49 94 1011.8
20260506220404 56 199 0.0 1.0 0.01 0.52 0.49 94 1011.8
20260506220304 56 199 0.0 1.0 0.01 0.52 0.49 94 1011.8
20260506220218 56 199 0.0 1.0 0.01 0.52 0.49 94 1011.8
20260506220104 56 199 0.0 1.0 0.01 0.52 0.49 94 1011.5
20260506215903 56 199 0.0 1.0 0.01 0.52 0.49 94 1011.3
20260506215804 56 199 0.0 2.0 0.01 0.52 0.49 94 1011.2
20260506215703 56 199 0.0 2.0 0.01 0.52 0.49 94 1011.2
20260506215603 56 199 0.0 2.0 0.01 0.52 0.49 94 1011.3
20260506215503 56 199 0.0 2.0 0.01 0.52 0.49 94 1011.3
20260506215403 56 199 0.0 2.0 0.01 0.52 0.49 94 1011.3
20260506215306 56 199 0.0 2.0 0.01 0.52 0.49 94 1011.4
20260506215203 56 199 0.0 2.0 0.01 0.52 0.49 94 1011.4
20260506215104 56 199 0.0 2.0 0.01 0.52 0.49 94 1011.5
20260506215004 56 199 0.0 2.0 0.01 0.52 0.49 94 1011.5
20260506214904 56 199 0.0 2.0 0.01 0.52 0.49 94 1011.5
20260506214803 56 199 0.0 2.0 0.01 0.52 0.49 94 1011.6
20260506214703 56 199 0.0 2.0 0.01 0.52 0.49 93 1011.6
20260506214603 56 199 0.0 2.0 0.01 0.52 0.49 93 1011.6
20260506214504 56 199 0.0 3.0 0.01 0.52 0.49 93 1011.7
20260506214403 56 199 0.0 3.0 0.01 0.52 0.49 93 1011.7
20260506214303 56 199 0.0 3.0 0.01 0.52 0.49 93 1011.8
20260506214203 56 199 0.0 3.0 0.01 0.52 0.49 93 1011.8
20260506214103 56 199 0.0 3.0 0.01 0.52 0.49 93 1011.8
20260506214017 56 199 0.0 3.0 0.01 0.52 0.49 93 1011.9
20260506213904 56 199 0.0 3.0 0.01 0.52 0.49 93 1011.9
20260506213703 56 199 0.0 3.0 0.01 0.52 0.49 93 1012.1
20260506213604 56 199 0.0 3.0 0.01 0.52 0.49 93 1012.1
20260506213504 56 199 0.0 1.0 0.02 0.52 0.49 93 1012.0
20260506213403 56 199 0.0 1.0 0.02 0.52 0.49 93 1012.0
20260506213303 56 199 0.0 1.0 0.02 0.52 0.49 93 1011.9
20260506213203 56 199 0.0 1.0 0.02 0.52 0.49 93 1011.9
20260506213104 56 199 0.0 1.0 0.02 0.52 0.49 93 1011.9
20260506213004 56 199 0.0 1.0 0.02 0.52 0.49 93 1011.8
20260506212918 56 199 0.0 1.0 0.03 0.52 0.49 93 1011.8
20260506212904 56 199 0.0 1.0 0.03 0.52 0.49 93 1011.6
20260506212804 56 199 0.0 1.0 0.03 0.52 0.49 93 1011.6
20260506212604 56 0 0.0 0.0 0.03 0.52 0.49 93 1011.6
20260506212503 56 0 0.0 0.0 0.03 0.52 0.49 93 1011.4
20260506212306 56 0 0.0 0.0 0.03 0.52 0.49 93 1011.3
20260506212203 56 0 0.0 0.0 0.03 0.52 0.49 93 1011.3
20260506211904 56 0 0.0 0.0 0.03 0.52 0.49 93 1011.1
20260506211804 56 0 0.0 0.0 0.03 0.52 0.49 93 1011.1
20260506211704 56 0 0.0 0.0 0.03 0.52 0.49 93 1010.9
20260506211603 56 0 0.0 0.0 0.03 0.52 0.49 93 1010.9
20260506211503 56 0 0.0 0.0 0.03 0.52 0.49 93 1010.9
20260506211404 56 0 0.0 0.0 0.03 0.52 0.49 93 1010.9
20260506211303 56 0 0.0 0.0 0.03 0.52 0.49 93 1010.9
20260506211204 56 0 0.0 0.0 0.02 0.51 0.48 93 1011.0
20260506211103 56 0 0.0 0.0 0.02 0.51 0.48 94 1011.1
20260506211003 56 0 0.0 0.0 0.02 0.51 0.48 93 1011.1
20260506210903 56 0 0.0 0.0 0.02 0.51 0.48 93 1011.3
20260506210803 56 0 0.0 0.0 0.02 0.51 0.48 93 1011.3
20260506210703 56 0 0.0 0.0 0.02 0.51 0.48 93 1011.4
20260506210503 56 199 0.0 1.0 0.02 0.51 0.48 93 1011.4
20260506210403 56 189 0.0 4.0 0.02 0.51 0.48 93 1011.3
20260506210303 56 189 0.0 4.0 0.02 0.51 0.48 93 1011.3
20260506210203 56 189 0.0 4.0 0.02 0.51 0.48 93 1011.3
20260506210103 56 189 0.0 4.0 0.02 0.51 0.48 93 1011.4
20260506205904 56 189 0.0 4.0 0.02 0.51 0.48 93 1011.5
20260506205803 56 189 0.0 4.0 0.02 0.51 0.48 93 1011.5
20260506205703 56 189 0.0 4.0 0.02 0.51 0.48 93 1011.5
20260506205603 56 189 0.0 4.0 0.02 0.51 0.48 93 1011.5
20260506205503 56 189 0.0 4.0 0.02 0.51 0.48 93 1011.5
20260506205403 56 0 0.0 0.0 0.02 0.51 0.48 93 1011.5
20260506205203 56 0 0.0 0.0 0.02 0.51 0.48 93 1011.5
20260506205103 56 0 0.0 0.0 0.02 0.51 0.48 93 1011.3
20260506204803 56 142 0.0 1.0 0.02 0.51 0.48 93 1011.4
20260506204703 56 142 0.0 1.0 0.02 0.51 0.48 93 1011.4
20260506204603 56 142 0.0 2.0 0.02 0.51 0.48 93 1011.3
20260506204404 56 142 0.0 2.0 0.02 0.51 0.48 93 1011.4
20260506204303 56 142 0.0 2.0 0.02 0.51 0.48 93 1011.5
20260506204203 56 142 0.0 3.0 0.02 0.51 0.48 93 1011.5
20260506204103 56 142 0.0 3.0 0.02 0.51 0.48 93 1011.5
20260506204003 56 142 0.0 3.0 0.02 0.51 0.48 93 1011.5
20260506203903 56 142 0.0 3.0 0.02 0.51 0.48 93 1011.5
20260506203803 56 142 0.0 3.0 0.02 0.51 0.48 93 1011.5
20260506203604 56 142 0.0 3.0 0.02 0.51 0.48 93 1011.5
20260506203503 56 142 0.0 3.0 0.01 0.50 0.47 93 1011.5
20260506203303 56 143 0.0 3.0 0.01 0.50 0.47 93 1011.5
20260506203203 56 144 0.0 2.0 0.01 0.50 0.47 93 1011.5
20260506203103 56 144 0.0 2.0 0.01 0.50 0.47 93 1011.6
20260506203004 56 143 0.0 2.0 0.01 0.50 0.47 93 1011.6
20260506202903 56 143 0.0 2.0 0.00 0.49 0.46 93 1011.6
20260506202803 56 143 0.0 2.0 0.00 0.49 0.46 93 1011.4
20260506202703 56 143 0.0 2.0 0.00 0.49 0.46 93 1011.4
20260506202603 56 143 0.0 2.0 0.00 0.49 0.46 93 1011.4
20260506202504 56 142 0.0 2.0 0.00 0.49 0.46 93 1011.4
20260506202404 56 142 0.0 2.0 0.00 0.49 0.46 93 1011.4
20260506202306 56 136 0.0 2.0 0.00 0.49 0.46 93 1011.5
20260506202204 56 120 0.0 2.0 0.00 0.49 0.46 93 1011.5
20260506202003 56 67 0.0 2.0 0.00 0.49 0.46 93 1011.6
20260506201903 56 37 0.0 2.0 0.00 0.49 0.46 93 1011.6
20260506201803 56 30 0.0 2.0 0.01 0.49 0.46 93 1011.5
20260506201703 56 30 0.0 2.0 0.01 0.49 0.46 93 1011.4
20260506201603 56 30 0.0 2.0 0.01 0.49 0.46 93 1011.4
20260506201503 56 27 0.0 2.0 0.01 0.49 0.46 93 1011.4
20260506201403 56 21 0.0 2.0 0.01 0.49 0.46 93 1011.4
20260506201303 56 21 0.0 2.0 0.01 0.49 0.46 93 1011.3
20260506201203 56 22 0.0 3.0 0.01 0.49 0.46 93 1011.3
20260506201103 56 23 0.0 3.0 0.02 0.49 0.46 93 1011.3
20260506201003 56 23 0.0 3.0 0.02 0.49 0.46 93 1011.2
20260506200904 56 23 0.0 3.0 0.02 0.49 0.46 94 1011.2
20260506200803 56 24 0.0 3.0 0.02 0.49 0.46 93 1011.1
20260506200703 56 24 0.0 3.0 0.02 0.49 0.46 93 1011.0
20260506200603 56 24 0.0 3.0 0.03 0.49 0.46 93 1011.0
20260506200403 56 24 0.0 3.0 0.03 0.49 0.46 93 1011.0
20260506200304 56 24 0.0 3.0 0.03 0.49 0.46 94 1011.0
20260506200219 56 25 0.0 2.0 0.03 0.49 0.46 94 1011.1
20260506200203 56 0 0.0 0.0 0.03 0.49 0.46 94 1011.1
20260506195917 56 267 0.0 1.0 0.03 0.49 0.46 94 1011.1
20260506195904 56 267 0.0 1.0 0.03 0.49 0.46 94 1011.0
20260506195803 56 267 0.0 1.0 0.04 0.49 0.46 94 1011.0
20260506195716 56 267 0.0 1.0 0.04 0.49 0.46 93 1010.9
20260506195604 56 267 0.0 1.0 0.04 0.49 0.46 94 1010.9
20260506195517 56 267 0.0 1.0 0.04 0.49 0.46 94 1010.8
20260506195404 56 267 0.0 1.0 0.04 0.49 0.46 94 1010.9
20260506195204 56 277 0.0 2.0 0.04 0.49 0.46 94 1011.0
20260506195104 56 298 0.0 2.0 0.04 0.49 0.46 94 1011.1
20260506195004 56 308 0.0 2.0 0.04 0.49 0.46 94 1011.1
20260506194904 56 320 0.0 2.0 0.04 0.49 0.46 93 1011.2
20260506194803 56 323 0.0 2.0 0.04 0.49 0.46 94 1011.2
20260506194704 56 332 0.0 2.0 0.04 0.49 0.46 93 1011.3
20260506194617 56 337 1.0 2.0 0.04 0.49 0.46 93 1011.3
20260506194603 56 336 1.0 2.0 0.04 0.49 0.46 93 1011.3
20260506194504 56 335 1.0 2.0 0.04 0.49 0.46 93 1011.3
20260506194418 56 336 1.0 2.0 0.04 0.49 0.46 93 1011.3
20260506194303 56 340 1.0 2.0 0.05 0.49 0.46 93 1011.3
20260506194217 56 336 1.0 2.0 0.05 0.49 0.46 93 1011.0
20260506194104 56 324 1.0 3.0 0.05 0.49 0.46 93 1010.9
20260506193903 56 317 1.0 3.0 0.05 0.49 0.46 93 1011.0
20260506193804 56 315 1.0 3.0 0.05 0.49 0.46 93 1011.0
20260506193718 56 312 1.0 3.0 0.06 0.49 0.46 93 1011.0
20260506193703 56 311 1.0 3.0 0.06 0.49 0.46 93 1011.0
20260506193604 56 305 1.0 3.0 0.06 0.49 0.46 93 1011.0
20260506193403 56 300 1.0 3.0 0.06 0.49 0.46 93 1011.0
20260506193304 56 295 1.0 3.0 0.06 0.49 0.46 93 1011.1
20260506193203 56 289 1.0 3.0 0.06 0.49 0.46 93 1011.1
20260506193103 56 282 1.0 3.0 0.06 0.49 0.46 93 1011.4
20260506193004 56 267 1.0 3.0 0.06 0.49 0.46 93 1011.4
20260506192903 56 260 1.0 3.0 0.06 0.49 0.46 93 1011.6
20260506192804 56 245 1.0 3.0 0.06 0.49 0.46 93 1011.6
20260506192704 56 236 1.0 3.0 0.07 0.49 0.46 93 1011.6
20260506192604 56 231 1.0 3.0 0.07 0.49 0.46 93 1011.5
20260506192503 56 234 1.0 3.0 0.07 0.49 0.46 93 1011.5
20260506192404 56 216 1.0 3.0 0.07 0.49 0.46 93 1011.4
20260506192305 56 210 1.0 3.0 0.07 0.49 0.46 93 1011.4
20260506192217 56 221 1.0 4.0 0.07 0.49 0.46 93 1011.4
20260506192203 56 222 1.0 4.0 0.07 0.49 0.46 93 1011.4
20260506192103 56 228 1.0 4.0 0.07 0.49 0.46 93 1011.4
20260506191903 56 264 1.0 4.0 0.07 0.49 0.46 93 1011.4
20260506191803 56 290 1.0 4.0 0.06 0.48 0.45 93 1011.5
20260506191704 56 305 1.0 4.0 0.06 0.48 0.45 93 1011.5
20260506191603 56 310 1.0 4.0 0.06 0.48 0.45 92 1011.7
20260506191504 56 315 1.0 4.0 0.06 0.48 0.45 92 1011.8
20260506191404 56 314 1.0 4.0 0.06 0.48 0.45 92 1011.8
20260506191304 56 316 1.0 4.0 0.06 0.48 0.45 93 1011.8
20260506191203 56 318 1.0 2.0 0.06 0.48 0.45 93 1011.8
20260506191103 56 316 1.0 2.0 0.05 0.47 0.44 93 1011.8
20260506191003 56 310 1.0 2.0 0.05 0.47 0.44 93 1011.9
20260506190903 56 306 1.0 2.0 0.05 0.47 0.44 93 1011.9
20260506190803 56 309 0.0 2.0 0.05 0.47 0.44 93 1012.1
20260506190704 56 310 0.0 2.0 0.05 0.47 0.44 93 1012.1
20260506190603 56 311 0.0 2.0 0.04 0.46 0.43 93 1012.1
20260506190504 56 312 0.0 2.0 0.04 0.46 0.43 93 1012.2
20260506190404 56 313 0.0 1.0 0.04 0.46 0.43 93 1012.2
20260506190303 56 313 0.0 1.0 0.04 0.46 0.43 93 1012.3
20260506190203 56 312 0.0 1.0 0.04 0.46 0.43 93 1012.3
20260506190003 56 313 0.0 4.0 0.04 0.46 0.43 93 1012.2
20260506185904 56 310 0.0 4.0 0.04 0.46 0.43 93 1012.2
20260506185704 56 305 0.0 4.0 0.03 0.45 0.42 93 1012.2
20260506185603 56 299 0.0 4.0 0.03 0.45 0.42 93 1012.2
20260506185503 56 300 0.0 4.0 0.03 0.45 0.42 93 1012.1
20260506185403 56 300 0.0 4.0 0.03 0.45 0.42 93 1012.1
20260506185203 56 300 0.0 4.0 0.03 0.45 0.42 93 1012.0
20260506185103 56 298 0.0 4.0 0.03 0.45 0.42 93 1012.0
20260506185003 56 281 0.0 3.0 0.03 0.45 0.42 93 1012.1
20260506184904 56 291 0.0 2.0 0.03 0.45 0.42 93 1012.1
20260506184803 56 291 0.0 2.0 0.03 0.45 0.42 93 1012.1
20260506184718 56 296 0.0 2.0 0.03 0.45 0.42 93 1012.2
20260506184704 56 298 0.0 2.0 0.03 0.45 0.42 93 1012.2
20260506184604 56 312 0.0 1.0 0.03 0.45 0.42 93 1012.2
20260506184403 56 312 0.0 1.0 0.03 0.45 0.42 93 1012.1
20260506184303 56 312 0.0 1.0 0.02 0.44 0.41 93 1012.1
20260506184203 56 312 0.0 1.0 0.02 0.44 0.41 93 1012.0
20260506184103 56 312 0.0 1.0 0.02 0.44 0.41 93 1012.0
20260506183905 56 312 0.0 1.0 0.02 0.44 0.41 93 1011.9
20260506183803 56 312 0.0 1.0 0.02 0.44 0.41 93 1011.9
20260506183703 56 312 0.0 1.0 0.01 0.43 0.40 93 1011.8
20260506183603 56 312 0.0 1.0 0.01 0.43 0.40 93 1011.8
20260506183504 56 312 0.0 1.0 0.01 0.43 0.40 93 1011.8
20260506183404 56 312 0.0 1.0 0.01 0.43 0.40 93 1011.8
20260506183304 56 312 0.0 2.0 0.01 0.43 0.40 93 1011.8
20260506183204 56 312 0.0 2.0 0.01 0.43 0.40 93 1011.7
20260506183117 56 313 0.0 2.0 0.01 0.43 0.40 92 1011.7
20260506183104 56 312 0.0 3.0 0.01 0.43 0.40 92 1011.7
20260506183018 56 304 0.0 3.0 0.01 0.43 0.40 93 1011.7
20260506183003 56 302 0.0 3.0 0.01 0.43 0.40 93 1011.7
20260506182817 56 289 0.0 3.0 0.01 0.43 0.40 93 1011.7
20260506182704 56 286 0.0 3.0 0.00 0.42 0.39 92 1011.7
20260506182616 56 285 0.0 3.0 0.00 0.42 0.39 92 1011.7
20260506182519 56 283 1.0 3.0 0.00 0.42 0.39 92 1011.6
20260506182504 56 281 1.0 3.0 0.00 0.42 0.39 92 1011.6
20260506182418 56 277 1.0 3.0 0.00 0.42 0.39 92 1011.5
20260506182318 56 274 0.0 3.0 0.00 0.42 0.39 92 1011.5
20260506182003 56 237 0.0 3.0 0.00 0.42 0.39 92 1011.6
20260506181904 56 236 0.0 2.0 0.00 0.42 0.39 92 1011.7
20260506181803 56 236 0.0 2.0 0.00 0.42 0.39 92 1011.7
20260506181703 56 236 0.0 2.0 0.00 0.42 0.39 92 1011.6
20260506181504 56 236 0.0 3.0 0.00 0.42 0.39 92 1011.5
20260506181404 56 236 0.0 3.0 0.00 0.42 0.39 92 1011.4
20260506181303 56 235 0.0 3.0 0.00 0.42 0.39 92 1011.4
20260506181104 56 234 0.0 3.0 0.00 0.42 0.39 92 1011.4
20260506181003 56 235 0.0 3.0 0.00 0.42 0.39 92 1011.4
20260506180904 56 235 0.0 3.0 0.00 0.42 0.39 92 1011.3
20260506180803 56 235 0.0 3.0 0.00 0.42 0.39 92 1011.3
20260506180703 56 235 0.0 3.0 0.00 0.42 0.39 92 1011.3
20260506180503 56 235 0.0 3.0 0.00 0.42 0.39 92 1011.3
20260506180404 56 235 0.0 3.0 0.00 0.42 0.39 92 1011.3
20260506180203 56 235 0.0 3.0 0.00 0.42 0.39 93 1011.3
20260506175817 56 229 0.0 3.0 0.00 0.42 0.39 92 1011.0
20260506175804 56 229 0.0 3.0 0.00 0.42 0.39 93 1011.0
20260506175703 56 226 1.0 3.0 0.00 0.42 0.39 93 1011.0
20260506175503 56 224 1.0 3.0 0.00 0.42 0.39 92 1011.1
20260506175403 56 224 1.0 3.0 0.00 0.42 0.39 92 1011.1
20260506175306 56 222 1.0 3.0 0.00 0.42 0.39 92 1011.2
20260506175203 56 219 1.0 2.0 0.00 0.42 0.39 92 1011.2
20260506175104 56 219 1.0 2.0 0.00 0.42 0.39 92 1011.2
20260506175004 56 219 1.0 2.0 0.00 0.42 0.39 92 1011.3
20260506174903 56 219 0.0 2.0 0.00 0.42 0.39 92 1011.3
20260506174804 57 219 0.0 2.0 0.00 0.42 0.39 92 1011.4
20260506174704 57 219 0.0 2.0 0.00 0.42 0.39 92 1011.4
20260506174603 57 232 0.0 4.0 0.00 0.42 0.39 92 1011.4
20260506174504 57 260 0.0 4.0 0.00 0.42 0.39 92 1011.4
20260506174404 57 252 0.0 4.0 0.00 0.42 0.39 92 1011.4
20260506174318 57 241 0.0 4.0 0.00 0.42 0.39 92 1011.3
20260506174303 57 239 0.0 4.0 0.00 0.42 0.39 92 1011.3
20260506174203 56 238 0.0 4.0 0.00 0.42 0.39 92 1011.3
20260506174117 56 240 0.0 4.0 0.00 0.42 0.39 92 1011.3
20260506174003 57 242 0.0 4.0 0.00 0.42 0.39 92 1011.3
20260506173918 56 242 0.0 4.0 0.00 0.42 0.39 92 1011.3
20260506173804 57 236 0.0 4.0 0.00 0.42 0.39 92 1011.3
20260506173603 57 227 0.0 4.0 0.00 0.42 0.39 92 1011.2
20260506173504 57 203 0.0 2.0 0.00 0.42 0.39 92 1011.3
20260506173403 57 203 0.0 2.0 0.00 0.42 0.39 92 1011.3
20260506173303 57 203 0.0 2.0 0.00 0.42 0.39 92 1011.2
20260506173204 57 203 0.0 2.0 0.00 0.42 0.39 92 1011.1
20260506173104 57 203 0.0 2.0 0.00 0.42 0.39 92 1011.1
20260506173003 57 203 0.0 2.0 0.00 0.42 0.39 92 1011.0
20260506172904 57 203 0.0 2.0 0.00 0.42 0.39 92 1011.0
20260506172804 57 203 0.0 2.0 0.00 0.42 0.39 92 1011.1
20260506172703 57 203 0.0 2.0 0.00 0.42 0.39 92 1011.2
20260506172604 57 203 0.0 3.0 0.00 0.42 0.39 92 1011.2
20260506172503 57 204 0.0 3.0 0.00 0.42 0.39 92 1011.1
20260506172404 57 212 0.0 3.0 0.00 0.42 0.39 92 1011.1
20260506172306 57 215 0.0 3.0 0.00 0.42 0.39 92 1011.1
20260506172218 57 219 0.0 3.0 0.00 0.42 0.39 92 1011.2
20260506172204 57 221 0.0 3.0 0.00 0.42 0.39 92 1011.2
20260506172104 57 226 0.0 3.0 0.00 0.42 0.39 92 1011.2
20260506171904 57 239 0.0 3.0 0.00 0.42 0.39 92 1011.1
20260506171803 57 239 0.0 3.0 0.00 0.42 0.39 93 1011.1
20260506171704 57 251 0.0 3.0 0.00 0.42 0.39 92 1011.1
20260506171603 57 285 0.0 1.0 0.00 0.42 0.39 92 1011.1
20260506171504 57 285 0.0 2.0 0.00 0.42 0.39 92 1011.1
20260506171403 57 285 0.0 3.0 0.00 0.42 0.39 93 1011.1
20260506171303 57 285 0.0 3.0 0.00 0.42 0.39 93 1011.1
20260506171203 57 285 0.0 3.0 0.00 0.42 0.39 93 1011.0
20260506171103 57 285 0.0 3.0 0.00 0.42 0.39 93 1011.0
20260506171003 57 285 0.0 3.0 0.00 0.42 0.39 93 1011.0
20260506170903 57 285 0.0 3.0 0.00 0.42 0.39 93 1011.1
20260506170803 57 285 0.0 3.0 0.00 0.42 0.39 93 1011.1
20260506170703 57 285 0.0 3.0 0.00 0.42 0.39 93 1011.2
20260506170603 57 285 0.0 3.0 0.00 0.42 0.39 93 1011.2
20260506170404 57 285 0.0 2.0 0.00 0.42 0.39 93 1011.3
20260506170303 57 285 0.0 2.0 0.00 0.42 0.39 93 1011.3
20260506170203 57 285 0.0 2.0 0.00 0.42 0.39 93 1011.3
20260506170103 57 285 1.0 3.0 0.00 0.42 0.39 93 1011.2
20260506170004 57 285 1.0 3.0 0.00 0.42 0.39 93 1011.2
20260506165904 57 285 1.0 3.0 0.00 0.42 0.39 93 1011.1
20260506165803 57 285 1.0 3.0 0.00 0.42 0.39 93 1011.1
20260506165703 57 285 1.0 3.0 0.00 0.42 0.39 93 1011.2
20260506165603 57 285 1.0 3.0 0.00 0.42 0.39 93 1011.2
20260506165503 57 286 1.0 3.0 0.00 0.42 0.39 93 1011.2
20260506165403 57 285 0.0 3.0 0.00 0.42 0.39 93 1011.2
20260506165305 57 277 0.0 3.0 0.00 0.42 0.39 93 1011.1
20260506165203 57 273 0.0 3.0 0.00 0.42 0.39 93 1011.1
20260506165103 57 262 0.0 2.0 0.00 0.42 0.39 93 1011.1
20260506165003 57 252 0.0 2.0 0.00 0.42 0.39 93 1011.1
20260506164918 57 234 0.0 2.0 0.00 0.42 0.39 93 1011.1
20260506164903 57 223 0.0 2.0 0.00 0.42 0.39 93 1011.1
20260506164804 57 224 0.0 2.0 0.00 0.42 0.39 93 1011.2
20260506164603 57 238 0.0 2.0 0.00 0.42 0.39 93 1011.3
20260506164504 57 242 0.0 3.0 0.00 0.42 0.39 93 1011.3
20260506164404 57 249 0.0 3.0 0.00 0.42 0.39 93 1011.2
20260506164318 57 255 0.0 3.0 0.00 0.42 0.39 93 1011.2
20260506164303 57 270 0.0 3.0 0.00 0.42 0.39 93 1011.2
20260506164204 57 279 0.0 3.0 0.00 0.42 0.39 93 1011.2
20260506163903 57 277 0.0 3.0 0.00 0.42 0.39 93 1011.1
20260506163803 57 277 0.0 3.0 0.00 0.42 0.39 93 1011.1
20260506163704 57 275 0.0 3.0 0.00 0.42 0.39 93 1011.1
20260506163604 57 276 0.0 3.0 0.00 0.42 0.39 93 1011.0
20260506163503 57 275 0.0 2.0 0.00 0.42 0.39 93 1011.0
20260506163403 57 276 0.0 2.0 0.00 0.42 0.39 93 1011.0
20260506163303 57 281 0.0 2.0 0.00 0.42 0.39 93 1011.1
20260506163103 57 283 1.0 4.0 0.00 0.42 0.39 93 1011.2
20260506163003 57 282 1.0 4.0 0.00 0.42 0.39 93 1011.3
20260506162903 57 281 1.0 4.0 0.00 0.42 0.39 93 1011.3
20260506162803 57 282 1.0 4.0 0.00 0.42 0.39 93 1011.3
20260506162717 57 284 1.0 4.0 0.00 0.42 0.39 93 1011.3
20260506162703 57 288 1.0 4.0 0.00 0.42 0.39 93 1011.3
20260506162603 57 300 1.0 4.0 0.00 0.42 0.39 93 1011.3
20260506162404 57 322 1.0 4.0 0.00 0.42 0.39 93 1011.3
20260506162306 57 330 1.0 4.0 0.00 0.42 0.39 93 1011.2
20260506162203 57 4 1.0 4.0 0.00 0.42 0.39 93 1011.2
20260506162103 57 24 1.0 2.0 0.00 0.42 0.39 93 1011.2
20260506162004 57 26 1.0 2.0 0.00 0.42 0.39 93 1011.1
20260506161903 57 34 1.0 3.0 0.00 0.42 0.39 93 1011.1
20260506161803 57 34 1.0 3.0 0.00 0.42 0.39 93 1011.1
20260506161704 57 35 1.0 3.0 0.00 0.42 0.39 93 1011.1
20260506161604 57 37 0.0 3.0 0.00 0.42 0.39 94 1011.1
20260506161504 57 38 0.0 3.0 0.00 0.42 0.39 94 1011.0
20260506161403 57 41 1.0 3.0 0.00 0.42 0.39 94 1011.0
20260506161218 57 35 1.0 3.0 0.00 0.42 0.39 93 1011.0
20260506161203 57 33 1.0 3.0 0.00 0.42 0.39 93 1011.0
20260506161104 56 11 0.0 3.0 0.00 0.42 0.39 93 1011.0
20260506160903 56 268 0.0 3.0 0.00 0.42 0.39 93 1011.0
20260506160803 56 268 0.0 3.0 0.00 0.42 0.39 93 1010.9
20260506160704 56 268 0.0 3.0 0.00 0.42 0.39 93 1010.9
20260506160604 56 264 0.0 3.0 0.00 0.42 0.39 93 1010.9
20260506160504 56 263 0.0 3.0 0.00 0.42 0.39 93 1011.0
20260506160304 56 242 0.0 3.0 0.00 0.42 0.39 94 1011.0
20260506160204 56 234 0.0 3.0 0.00 0.42 0.39 94 1011.0
20260506160004 56 208 0.0 2.0 0.00 0.42 0.39 94 1011.1
20260506155918 56 208 0.0 2.0 0.00 0.42 0.39 94 1011.1
20260506155904 56 208 0.0 2.0 0.00 0.42 0.39 94 1011.2
20260506155803 56 208 0.0 2.0 0.00 0.42 0.39 94 1011.2
20260506155603 56 226 0.0 2.0 0.00 0.42 0.39 94 1011.4
20260506155504 56 227 0.0 2.0 0.00 0.42 0.39 94 1011.4
20260506155403 56 232 0.0 2.0 0.00 0.42 0.39 94 1011.3
20260506155306 56 245 1.0 2.0 0.00 0.42 0.39 94 1011.3
20260506155204 56 261 1.0 2.0 0.00 0.42 0.39 94 1011.3
20260506155104 56 279 1.0 2.0 0.00 0.42 0.39 94 1011.3
20260506155003 56 283 1.0 2.0 0.00 0.42 0.39 94 1011.2
20260506154918 56 297 1.0 2.0 0.00 0.42 0.39 94 1011.2
20260506154904 56 301 1.0 3.0 0.00 0.42 0.39 94 1011.2
20260506154818 56 309 1.0 3.0 0.00 0.42 0.39 94 1011.2
20260506154804 56 313 1.0 3.0 0.00 0.42 0.39 94 1011.2
20260506154518 56 295 1.0 3.0 0.00 0.42 0.39 94 1011.2
20260506154503 56 289 1.0 3.0 0.00 0.42 0.39 94 1011.2
20260506154403 56 277 1.0 3.0 0.00 0.42 0.39 94 1011.1
20260506154203 56 209 0.0 3.0 0.00 0.42 0.39 94 1011.2
20260506154103 56 184 0.0 3.0 0.00 0.42 0.39 94 1011.3
20260506154004 56 181 0.0 3.0 0.00 0.42 0.39 94 1011.3
20260506153903 56 169 0.0 2.0 0.00 0.42 0.39 94 1011.2
20260506153804 56 169 0.0 1.0 0.00 0.42 0.39 94 1011.2
20260506153704 56 169 0.0 1.0 0.00 0.42 0.39 94 1011.2
20260506153603 56 169 0.0 1.0 0.00 0.42 0.39 94 1011.1
20260506153504 56 169 0.0 1.0 0.00 0.42 0.39 94 1011.1
20260506153403 56 175 0.0 2.0 0.00 0.42 0.39 94 1011.2
20260506153304 56 178 0.0 2.0 0.00 0.42 0.39 94 1011.2
20260506153203 56 206 0.0 2.0 0.00 0.42 0.39 94 1011.1
20260506153116 56 266 0.0 4.0 0.00 0.42 0.39 94 1011.1
20260506153104 56 265 0.0 4.0 0.00 0.42 0.39 94 1011.1
20260506153017 56 258 1.0 4.0 0.00 0.42 0.39 94 1011.1
20260506153003 56 257 1.0 4.0 0.00 0.42 0.39 94 1011.1
20260506152819 56 257 1.0 4.0 0.00 0.42 0.39 94 1011.0
20260506152703 56 258 1.0 4.0 0.00 0.42 0.39 94 1010.9
20260506152518 56 272 1.0 4.0 0.00 0.42 0.39 94 1010.8
20260506152504 56 274 1.0 4.0 0.00 0.42 0.39 94 1010.8
20260506152404 56 279 1.0 4.0 0.00 0.42 0.39 94 1010.9
20260506152203 56 282 1.0 4.0 0.00 0.42 0.39 94 1010.9
20260506152104 56 278 1.0 4.0 0.00 0.42 0.39 94 1010.8
20260506152003 56 286 1.0 4.0 0.00 0.42 0.39 94 1010.8
20260506151903 56 297 0.0 2.0 0.00 0.42 0.39 94 1010.8
20260506151804 56 303 0.0 2.0 0.00 0.42 0.39 94 1010.7
20260506151703 56 308 0.0 2.0 0.00 0.42 0.39 94 1010.7
20260506151604 56 308 0.0 2.0 0.00 0.42 0.39 94 1010.7
20260506151503 56 308 0.0 2.0 0.00 0.42 0.39 94 1010.7
20260506151403 56 308 0.0 2.0 0.00 0.42 0.39 94 1010.7
20260506151303 56 307 0.0 2.0 0.00 0.42 0.39 94 1010.6
20260506151203 56 302 0.0 2.0 0.00 0.42 0.39 94 1010.6
20260506151104 56 301 0.0 3.0 0.00 0.42 0.39 94 1010.7
20260506151017 56 300 0.0 3.0 0.00 0.42 0.39 94 1010.7
20260506151003 56 299 0.0 3.0 0.00 0.42 0.39 94 1010.8
20260506150903 56 298 0.0 3.0 0.00 0.42 0.39 94 1010.8
20260506150704 56 305 0.0 4.0 0.00 0.42 0.39 94 1010.8
20260506150603 56 305 0.0 4.0 0.00 0.42 0.39 94 1010.7
20260506150503 56 305 1.0 4.0 0.00 0.42 0.39 94 1010.7
20260506150404 56 302 1.0 4.0 0.00 0.42 0.39 94 1010.7
20260506150305 56 302 1.0 4.0 0.00 0.42 0.39 94 1010.7
20260506150203 56 301 0.0 4.0 0.00 0.42 0.39 94 1010.7
20260506150005 56 302 0.0 4.0 0.00 0.42 0.39 94 1010.6
20260506145903 56 298 1.0 4.0 0.00 0.42 0.39 94 1010.6
20260506145803 56 295 0.0 4.0 0.00 0.42 0.39 94 1010.5
20260506145703 56 292 1.0 3.0 0.00 0.42 0.39 94 1010.5
20260506145603 56 296 1.0 4.0 0.00 0.42 0.39 94 1010.4
20260506145518 56 294 1.0 4.0 0.00 0.42 0.39 94 1010.4
20260506145503 56 293 1.0 4.0 0.00 0.42 0.39 94 1010.4
20260506145404 56 296 1.0 5.0 0.00 0.42 0.39 94 1010.4
20260506145204 56 299 1.0 5.0 0.00 0.42 0.39 94 1010.4
20260506145103 56 297 1.0 5.0 0.00 0.42 0.39 94 1010.4
20260506145003 56 297 1.0 5.0 0.00 0.42 0.39 94 1010.4
20260506144903 56 299 1.0 5.0 0.00 0.42 0.39 94 1010.4
20260506144804 56 299 1.0 5.0 0.00 0.42 0.39 94 1010.4
20260506144704 56 299 1.0 5.0 0.00 0.42 0.39 94 1010.4
20260506144619 56 298 1.0 5.0 0.00 0.42 0.39 94 1010.4
20260506144604 56 297 1.0 5.0 0.00 0.42 0.39 94 1010.4
20260506144503 56 302 1.0 5.0 0.00 0.42 0.39 94 1010.3
20260506144304 56 284 0.0 3.0 0.00 0.42 0.39 94 1010.2
20260506144217 56 289 0.0 3.0 0.00 0.42 0.39 94 1010.2
20260506144203 56 290 0.0 3.0 0.00 0.42 0.39 94 1010.2
20260506144104 56 294 0.0 3.0 0.00 0.42 0.39 94 1010.2
20260506143903 56 303 1.0 3.0 0.01 0.42 0.39 94 1010.1
20260506143804 56 303 1.0 3.0 0.01 0.42 0.39 94 1010.1
20260506143603 56 303 1.0 3.0 0.01 0.42 0.39 94 1010.1
20260506143504 56 304 1.0 3.0 0.01 0.42 0.39 94 1009.9
20260506143403 56 307 0.0 3.0 0.01 0.42 0.39 94 1009.9
20260506143303 56 312 0.0 3.0 0.01 0.42 0.39 94 1009.9
20260506143217 56 323 0.0 3.0 0.01 0.42 0.39 94 1009.8
20260506143203 56 329 0.0 3.0 0.01 0.42 0.39 94 1009.8
20260506143118 56 339 0.0 3.0 0.01 0.42 0.39 94 1009.8
20260506143103 56 344 0.0 3.0 0.01 0.42 0.39 94 1009.8
20260506142803 56 12 0.0 2.0 0.02 0.42 0.39 94 1009.8
20260506142703 56 12 0.0 2.0 0.02 0.42 0.39 94 1009.9
20260506142604 56 12 0.0 2.0 0.02 0.42 0.39 94 1009.9
20260506142503 56 12 0.0 2.0 0.02 0.42 0.39 94 1009.8
20260506142403 56 12 0.0 2.0 0.02 0.42 0.39 94 1009.8
20260506142305 56 7 0.0 3.0 0.02 0.42 0.39 94 1009.8
20260506142220 56 4 0.0 3.0 0.03 0.42 0.39 94 1009.9
20260506142203 56 3 0.0 3.0 0.03 0.42 0.39 94 1009.9
20260506142103 56 2 0.0 3.0 0.03 0.42 0.39 94 1009.8
20260506141904 56 347 0.0 3.0 0.04 0.42 0.39 94 1009.8
20260506141804 56 330 0.0 3.0 0.05 0.42 0.39 94 1009.8
20260506141718 56 326 1.0 3.0 0.05 0.42 0.39 94 1009.7
20260506141704 56 325 1.0 3.0 0.05 0.42 0.39 94 1009.7
20260506141603 56 319 1.0 3.0 0.05 0.42 0.39 94 1009.7
20260506141404 56 312 1.0 3.0 0.06 0.42 0.39 94 1009.7
20260506141304 56 306 1.0 3.0 0.06 0.42 0.39 94 1009.7
20260506141203 56 301 1.0 3.0 0.06 0.42 0.39 94 1009.6
20260506141118 56 295 1.0 3.0 0.06 0.42 0.39 94 1009.6
20260506141103 56 294 1.0 3.0 0.06 0.42 0.39 94 1009.6
20260506141003 56 291 1.0 3.0 0.06 0.42 0.39 94 1009.6
20260506140804 56 268 0.0 3.0 0.06 0.42 0.39 94 1009.6
20260506140703 56 241 0.0 3.0 0.06 0.42 0.39 94 1009.6
20260506140603 56 222 0.0 2.0 0.07 0.42 0.39 94 1009.6
20260506140503 56 222 0.0 2.0 0.07 0.42 0.39 94 1009.6
20260506140403 56 230 0.0 2.0 0.07 0.42 0.39 94 1009.7
20260506140303 56 232 0.0 2.0 0.07 0.42 0.39 94 1009.6
20260506140203 56 242 0.0 2.0 0.07 0.42 0.39 93 1009.6
20260506140018 56 245 1.0 3.0 0.07 0.42 0.39 94 1009.7
20260506140003 56 243 1.0 3.0 0.07 0.42 0.39 94 1009.7
20260506135903 56 242 1.0 3.0 0.07 0.42 0.39 94 1009.7
20260506135818 56 239 1.0 3.0 0.07 0.42 0.39 94 1009.7
20260506135704 56 232 1.0 3.0 0.07 0.42 0.39 94 1009.7
20260506135503 56 234 1.0 3.0 0.07 0.42 0.39 94 1009.6
20260506135403 56 231 1.0 3.0 0.07 0.42 0.39 94 1009.3
20260506135305 56 230 1.0 3.0 0.07 0.42 0.39 93 1009.0
20260506135203 55 226 1.0 3.0 0.07 0.42 0.39 93 1009.0
20260506135103 55 216 1.0 2.0 0.07 0.42 0.39 93 1008.9
20260506135003 55 263 1.0 2.0 0.07 0.42 0.39 93 1008.9
20260506134904 55 301 1.0 2.0 0.07 0.42 0.39 93 1008.9
20260506134804 55 349 1.0 3.0 0.07 0.42 0.39 93 1008.7
20260506134718 55 360 1.0 3.0 0.07 0.42 0.39 93 1008.7
20260506134703 55 2 1.0 3.0 0.07 0.42 0.39 93 1008.7
20260506134603 55 8 1.0 3.0 0.07 0.42 0.39 93 1008.1
20260506134403 55 16 1.0 5.0 0.07 0.42 0.39 93 1007.9
20260506134303 55 16 2.0 5.0 0.07 0.42 0.39 93 1007.6
20260506134203 55 19 2.0 5.0 0.07 0.42 0.39 93 1007.6
20260506134103 55 17 2.0 5.0 0.07 0.42 0.39 93 1007.5
20260506134003 55 18 2.0 5.0 0.06 0.41 0.38 93 1007.5
20260506133903 55 17 2.0 5.0 0.06 0.41 0.38 93 1007.5
20260506133803 55 15 1.0 5.0 0.06 0.41 0.38 93 1007.3
20260506133703 55 8 2.0 5.0 0.06 0.41 0.38 93 1007.3
20260506133603 55 1 1.0 5.0 0.06 0.41 0.38 93 1007.1
20260506133503 55 348 1.0 5.0 0.06 0.41 0.38 93 1007.3
20260506133403 55 337 1.0 4.0 0.06 0.41 0.38 93 1007.3
20260506133303 55 318 1.0 4.0 0.06 0.41 0.38 93 1007.7
20260506133217 55 296 1.0 3.0 0.06 0.41 0.38 92 1007.7
20260506133203 55 287 1.0 3.0 0.06 0.41 0.38 92 1008.3
20260506133104 55 284 1.0 2.0 0.06 0.41 0.38 92 1008.3
20260506132904 56 284 1.0 2.0 0.06 0.41 0.38 92 1008.5
20260506132804 56 284 1.0 2.0 0.05 0.40 0.38 92 1008.8
20260506132718 56 284 1.0 2.0 0.05 0.40 0.37 92 1008.8
20260506132703 56 284 1.0 2.0 0.05 0.40 0.37 92 1009.0
20260506132603 56 284 1.0 2.0 0.05 0.40 0.37 92 1009.0
20260506132404 56 284 1.0 2.0 0.05 0.40 0.37 92 1009.3
20260506132307 56 284 1.0 2.0 0.05 0.40 0.37 92 1009.6
20260506132204 56 284 1.0 2.0 0.04 0.39 0.36 92 1009.7
20260506132118 56 284 1.0 2.0 0.04 0.39 0.36 92 1009.7
20260506132003 56 284 1.0 2.0 0.03 0.38 0.36 92 1010.1
20260506131917 56 283 1.0 2.0 0.03 0.38 0.35 92 1010.1
20260506131804 56 282 1.0 2.0 0.02 0.37 0.34 92 1010.4
20260506131603 56 282 0.0 2.0 0.02 0.37 0.34 92 1010.5
20260506131517 56 282 0.0 2.0 0.01 0.36 0.34 92 1010.5
20260506131503 56 282 0.0 2.0 0.01 0.36 0.33 92 1010.5
20260506131404 56 282 0.0 2.0 0.01 0.36 0.33 92 1010.5
20260506131318 56 282 0.0 2.0 0.01 0.36 0.33 92 1010.5
20260506131003 56 281 0.0 2.0 0.01 0.36 0.33 92 1010.4
20260506130904 56 282 0.0 2.0 0.01 0.36 0.33 92 1010.3
20260506130803 56 282 0.0 2.0 0.01 0.36 0.33 92 1010.3
20260506130703 56 282 1.0 2.0 0.01 0.36 0.33 92 1010.3
20260506130503 56 283 1.0 2.0 0.00 0.35 0.32 92 1010.2
20260506130403 56 280 1.0 3.0 0.00 0.35 0.32 92 1010.3
20260506130304 56 278 1.0 3.0 0.00 0.35 0.32 92 1010.3
20260506130203 56 278 1.0 3.0 0.00 0.35 0.32 92 1010.3
20260506130117 56 277 1.0 3.0 0.00 0.35 0.32 92 1010.3
20260506130103 56 276 1.0 3.0 0.00 0.35 0.32 92 1010.3
20260506130004 56 274 1.0 3.0 0.00 0.35 0.32 92 1010.3
20260506125804 56 270 1.0 3.0 0.00 0.35 0.32 92 1010.3
20260506125703 56 267 1.0 3.0 0.00 0.35 0.32 92 1010.1
20260506125603 57 266 1.0 3.0 0.00 0.35 0.32 92 1010.0
20260506125503 57 268 1.0 3.0 0.00 0.35 0.32 92 1010.0
20260506125403 57 273 0.0 2.0 0.00 0.35 0.32 92 1009.9
20260506125305 57 282 1.0 2.0 0.00 0.35 0.32 92 1009.9
20260506125203 57 287 1.0 2.0 0.00 0.35 0.32 92 1009.8
20260506125103 57 292 1.0 2.0 0.00 0.35 0.32 92 1009.8
20260506125003 57 296 1.0 3.0 0.00 0.35 0.32 92 1009.8
20260506124919 57 299 1.0 3.0 0.00 0.35 0.32 92 1009.8
20260506124904 57 301 1.0 3.0 0.00 0.35 0.32 92 1009.8
20260506124803 57 301 1.0 3.0 0.00 0.35 0.32 92 1009.8
20260506124603 57 309 1.0 3.0 0.00 0.35 0.32 92 1009.8
20260506124503 57 314 1.0 4.0 0.00 0.35 0.32 92 1009.8
20260506124403 57 315 1.0 4.0 0.00 0.35 0.32 92 1009.6
20260506124304 57 320 1.0 4.0 0.00 0.35 0.32 92 1009.7
20260506124204 57 326 1.0 4.0 0.00 0.35 0.32 92 1009.7
20260506124104 57 330 1.0 4.0 0.00 0.35 0.32 92 1009.7
20260506124004 57 333 1.0 4.0 0.00 0.35 0.32 92 1009.7
20260506123904 57 338 1.0 4.0 0.00 0.35 0.32 92 1009.6
20260506123817 57 338 1.0 4.0 0.00 0.35 0.32 92 1009.6
20260506123804 57 338 1.0 4.0 0.00 0.35 0.32 92 1009.5
20260506123703 57 338 1.0 4.0 0.00 0.35 0.32 92 1009.5
20260506123403 57 330 1.0 2.0 0.00 0.35 0.32 92 1009.4
20260506123303 57 321 1.0 2.0 0.00 0.35 0.32 92 1009.4
20260506123203 57 314 1.0 2.0 0.00 0.35 0.32 92 1009.4
20260506123103 57 313 1.0 2.0 0.00 0.35 0.32 92 1009.4
20260506123004 58 306 1.0 2.0 0.00 0.35 0.32 92 1009.4
20260506122903 58 299 1.0 4.0 0.00 0.35 0.32 92 1009.3
20260506122803 58 296 1.0 4.0 0.00 0.35 0.32 92 1009.2
20260506122703 58 281 1.0 4.0 0.00 0.35 0.32 92 1009.2
20260506122604 58 258 1.0 4.0 0.00 0.35 0.32 92 1009.1
20260506122504 58 247 1.0 4.0 0.00 0.35 0.32 92 1009.1
20260506122404 58 235 1.0 4.0 0.00 0.35 0.32 92 1009.1
20260506122305 58 229 1.0 4.0 0.00 0.35 0.32 92 1009.0
20260506122203 58 224 1.0 4.0 0.00 0.35 0.32 92 1009.0
20260506122104 58 223 1.0 4.0 0.00 0.35 0.32 92 1008.9
20260506122003 58 201 1.0 4.0 0.00 0.35 0.32 92 1008.8
20260506121903 58 194 1.0 4.0 0.00 0.35 0.32 92 1008.8
20260506121804 58 203 1.0 3.0 0.00 0.35 0.32 92 1008.7
20260506121703 58 218 1.0 3.0 0.00 0.35 0.32 92 1008.7
20260506121604 58 267 1.0 3.0 0.00 0.35 0.32 92 1008.7
20260506121517 58 290 1.0 3.0 0.00 0.35 0.32 92 1008.7
20260506121503 58 295 1.0 3.0 0.00 0.35 0.32 92 1008.7
20260506121404 58 303 1.0 3.0 0.00 0.35 0.32 92 1008.7
20260506121204 58 307 1.0 3.0 0.00 0.35 0.32 92 1008.6
20260506121103 58 308 1.0 3.0 0.00 0.35 0.32 92 1008.4
20260506120904 58 317 1.0 2.0 0.00 0.35 0.32 92 1008.4
20260506120804 58 317 1.0 2.0 0.00 0.35 0.32 92 1008.5
20260506120720 58 317 1.0 2.0 0.00 0.35 0.32 92 1008.5
20260506120519 58 317 0.0 2.0 0.00 0.35 0.32 92 1008.4
20260506120403 58 309 0.0 2.0 0.00 0.35 0.32 92 1008.4
20260506120203 58 306 0.0 3.0 0.00 0.35 0.32 92 1008.4
20260506120103 58 309 0.0 3.0 0.00 0.35 0.32 92 1008.4
20260506120004 58 310 0.0 3.0 0.00 0.35 0.32 92 1008.3
20260506115918 58 320 0.0 3.0 0.00 0.35 0.32 92 1008.3
20260506115903 58 325 0.0 3.0 0.00 0.35 0.32 92 1008.3
20260506115604 58 341 1.0 3.0 0.00 0.35 0.32 92 1008.0
20260506115504 58 342 1.0 3.0 0.01 0.35 0.32 92 1008.0
20260506115419 58 347 0.0 3.0 0.02 0.35 0.32 92 1008.0
20260506115404 59 349 0.0 3.0 0.02 0.35 0.32 92 1008.1
20260506115318 59 360 0.0 2.0 0.05 0.35 0.32 92 1008.1
20260506115307 59 1 0.0 2.0 0.05 0.35 0.32 92 1008.1
20260506115003 59 1 0.0 2.0 0.06 0.35 0.32 92 1007.9
20260506114903 59 358 0.0 2.0 0.06 0.35 0.32 92 1007.8
20260506114704 59 357 0.0 2.0 0.07 0.35 0.32 92 1008.0
20260506114603 59 290 0.0 1.0 0.07 0.35 0.32 92 1008.0
20260506114503 59 290 0.0 1.0 0.07 0.35 0.32 92 1007.9
20260506114403 59 290 0.0 1.0 0.08 0.35 0.32 92 1007.7
20260506114304 59 290 0.0 1.0 0.08 0.35 0.32 92 1007.7
20260506114203 59 290 0.0 1.0 0.08 0.35 0.32 92 1007.8
20260506114103 59 290 0.0 1.0 0.08 0.35 0.32 92 1007.8
20260506114003 59 290 0.0 1.0 0.08 0.35 0.32 92 1007.9
20260506113903 59 0 0.0 0.0 0.08 0.35 0.32 92 1007.8
20260506113804 59 0 0.0 0.0 0.08 0.35 0.32 92 1007.8
20260506113604 59 0 0.0 0.0 0.09 0.35 0.32 92 1007.5
20260506113503 59 0 0.0 0.0 0.10 0.35 0.32 92 1007.5
20260506113403 59 0 0.0 0.0 0.11 0.35 0.32 92 1007.5
20260506113303 59 0 0.0 0.0 0.11 0.35 0.32 92 1007.5
20260506113218 59 0 0.0 0.0 0.12 0.35 0.32 92 1007.5
20260506113204 59 0 0.0 0.0 0.12 0.35 0.32 91 1007.5
20260506113104 59 0 0.0 0.0 0.12 0.35 0.32 91 1007.5
20260506113018 59 0 0.0 0.0 0.12 0.35 0.32 91 1007.5
20260506112903 59 0 0.0 0.0 0.12 0.35 0.32 91 1007.4
20260506112704 59 0 0.0 0.0 0.12 0.35 0.32 91 1007.2
20260506112603 59 0 0.0 0.0 0.12 0.35 0.32 91 1007.2
20260506112403 59 0 0.0 0.0 0.12 0.35 0.32 91 1007.2
20260506112306 59 0 0.0 0.0 0.12 0.35 0.32 91 1007.2
20260506112204 59 0 0.0 0.0 0.12 0.35 0.32 91 1007.3
20260506112004 59 0 0.0 0.0 0.12 0.35 0.32 91 1007.2
20260506111904 59 0 0.0 0.0 0.12 0.35 0.32 91 1007.1
20260506111803 59 0 0.0 0.0 0.12 0.35 0.32 91 1007.1
20260506111703 59 0 0.0 0.0 0.12 0.35 0.32 91 1007.1
20260506111604 59 0 0.0 0.0 0.12 0.35 0.32 91 1007.0
20260506111503 59 0 0.0 0.0 0.12 0.35 0.32 91 1007.0
20260506111417 59 0 0.0 0.0 0.12 0.35 0.32 91 1007.0
20260506111404 59 0 0.0 0.0 0.12 0.35 0.32 90 1007.0
20260506111303 59 0 0.0 0.0 0.12 0.35 0.32 90 1007.1
20260506111104 59 0 0.0 0.0 0.12 0.35 0.32 90 1007.2
20260506111003 59 0 0.0 0.0 0.12 0.35 0.32 90 1007.2
20260506110903 59 0 0.0 0.0 0.12 0.35 0.32 90 1007.3
20260506110804 59 0 0.0 0.0 0.12 0.35 0.32 90 1007.4
20260506110704 59 0 0.0 0.0 0.12 0.35 0.32 90 1007.4
20260506110603 59 0 0.0 0.0 0.12 0.35 0.32 90 1007.3
20260506110503 59 0 0.0 0.0 0.12 0.35 0.32 90 1007.3
20260506110303 60 0 0.0 0.0 0.12 0.35 0.32 89 1007.4
20260506110203 60 0 0.0 0.0 0.12 0.35 0.32 89 1007.4
20260506110103 60 0 0.0 0.0 0.12 0.35 0.32 89 1007.6
20260506110004 60 0 0.0 0.0 0.12 0.35 0.32 89 1007.6
20260506105704 60 255 0.0 1.0 0.12 0.35 0.32 89 1007.6
20260506105603 60 255 0.0 1.0 0.12 0.35 0.32 89 1007.5
20260506105503 60 255 0.0 1.0 0.11 0.34 0.31 89 1007.4
20260506105305 60 255 0.0 1.0 0.07 0.30 0.27 89 1007.6
20260506105203 60 255 0.0 1.0 0.07 0.30 0.27 89 1007.6
20260506105103 60 255 0.0 1.0 0.06 0.29 0.26 89 1007.7
20260506105003 60 255 0.0 1.0 0.06 0.29 0.26 89 1007.8
20260506104918 60 0 0.0 0.0 0.07 0.29 0.26 88 1007.8
20260506104904 60 240 0.0 1.0 0.07 0.29 0.26 88 1007.8
20260506104803 61 240 0.0 1.0 0.06 0.28 0.25 88 1007.9
20260506104603 61 240 0.0 1.0 0.06 0.28 0.25 88 1007.8
20260506104504 61 240 0.0 1.0 0.06 0.28 0.25 88 1007.8
20260506104403 61 240 0.0 1.0 0.05 0.27 0.24 88 1007.8
20260506104303 61 240 0.0 1.0 0.05 0.27 0.24 88 1007.9
20260506104203 61 240 0.0 1.0 0.06 0.27 0.24 88 1007.9
20260506104003 61 240 0.0 1.0 0.08 0.27 0.24 88 1007.9
20260506103903 61 240 0.0 1.0 0.10 0.27 0.24 88 1007.9
20260506103803 61 245 0.0 2.0 0.11 0.27 0.24 88 1007.8
20260506103703 61 256 1.0 4.0 0.11 0.26 0.23 88 1007.8
20260506103603 61 273 1.0 4.0 0.12 0.26 0.23 88 1007.8
20260506103503 61 271 1.0 4.0 0.12 0.25 0.22 88 1008.1
20260506103404 61 269 1.0 4.0 0.13 0.24 0.21 88 1008.1
20260506103304 61 270 1.0 4.0 0.13 0.24 0.21 88 1008.1
20260506103218 62 268 1.0 4.0 0.13 0.23 0.20 88 1008.1
20260506103203 62 274 1.0 4.0 0.13 0.23 0.20 88 1008.1
20260506103104 62 275 1.0 4.0 0.14 0.23 0.20 88 1008.1
20260506103017 62 273 1.0 4.0 0.14 0.23 0.20 88 1007.9
20260506102903 62 267 1.0 5.0 0.15 0.23 0.20 87 1007.9
20260506102818 62 268 1.0 5.0 0.15 0.23 0.20 87 1007.9
20260506102704 62 262 1.0 5.0 0.15 0.23 0.20 87 1007.8
20260506102518 62 247 1.0 5.0 0.16 0.23 0.20 87 1007.6
20260506102503 62 246 1.0 5.0 0.16 0.23 0.20 87 1007.6
20260506102403 62 232 1.0 5.0 0.16 0.23 0.20 87 1007.5
20260506102317 63 220 1.0 5.0 0.16 0.23 0.20 87 1007.5
20260506102218 63 232 1.0 5.0 0.16 0.23 0.20 87 1007.3
20260506102203 63 229 1.0 5.0 0.16 0.23 0.20 87 1007.3
20260506101903 64 262 1.0 5.0 0.17 0.23 0.20 88 1007.2
20260506101803 64 261 1.0 5.0 0.17 0.23 0.20 88 1007.2
20260506101604 64 279 2.0 5.0 0.18 0.23 0.20 89 1007.2
20260506101503 64 291 2.0 5.0 0.18 0.23 0.20 89 1007.1
20260506101404 64 297 1.0 5.0 0.18 0.23 0.20 89 1007.2
20260506101303 65 301 1.0 5.0 0.18 0.23 0.20 89 1007.2
20260506101203 65 299 1.0 5.0 0.18 0.23 0.20 90 1007.4
20260506101116 65 298 1.0 5.0 0.18 0.23 0.20 90 1007.4
20260506101103 65 297 1.0 5.0 0.18 0.23 0.20 90 1007.3
20260506101017 65 299 1.0 5.0 0.19 0.23 0.20 90 1007.3
20260506101003 65 300 1.0 5.0 0.19 0.23 0.20 90 1007.3
20260506100717 66 313 0.0 5.0 0.19 0.23 0.20 91 1007.1
20260506100703 66 319 0.0 3.0 0.19 0.23 0.20 91 1007.1
20260506100603 66 321 0.0 3.0 0.19 0.23 0.20 91 1007.1
20260506100403 66 0 0.0 0.0 0.19 0.23 0.20 91 1006.9
20260506100304 66 0 0.0 0.0 0.19 0.23 0.20 91 1006.9
20260506100203 66 0 0.0 0.0 0.19 0.23 0.20 91 1006.8
20260506095803 66 0 0.0 0.0 0.20 0.23 0.20 91 1006.9
20260506095703 66 0 0.0 0.0 0.20 0.23 0.20 91 1006.9